Latitude: N 50° 09' 49" Longitude: W 05° 11' 53" Elevation: 168m ASL

There are 26 visitors online

Adverts

<- Previous Day | Today | Next Day ->

All Data for 14 December 2018

Time
A - D
Temp
A - D
Dew Point
A - D
Humidity
A - D
Pressure
A - D
Wind
A - D
Wind Dir Gust
A - D
Rain Rate
A - D
Rain Total
00:00 5.8 3.6 86 1015.4 5.4 W 9.2 0.0 0.0
00:01 5.8 3.6 86 1015.6 2.2 NW 6.9 0.0 0.0
00:02 5.8 3.6 86 1015.5 2.2 NW 6.9 0.0 0.0
00:03 5.8 3.6 86 1015.6 2.2 NW 6.9 0.0 0.0
00:04 5.8 3.6 86 1015.5 2.2 NW 6.9 0.0 0.0
00:05 5.8 3.6 86 1015.6 2.2 NW 6.9 0.0 0.0
00:06 5.8 3.6 86 1015.5 3.8 NE 6.9 0.0 0.0
00:07 5.8 3.6 86 1015.4 6.0 NE 6.9 0.0 0.0
00:08 5.8 3.6 86 1015.6 2.2 SW 6.0 0.0 0.0
00:10 5.8 3.6 86 1015.6 6.0 N 7.6 0.0 0.0
00:11 5.8 3.6 86 1015.5 6.9 NW 7.6 0.0 0.0
00:12 5.8 3.6 86 1015.6 3.1 SW 7.6 0.0 0.0
00:13 5.8 3.6 86 1015.5 4.5 SE 7.6 0.0 0.0
00:14 5.8 3.6 86 1015.6 6.9 NE 7.6 0.0 0.0
00:15 5.8 3.6 86 1015.5 4.5 WSW 7.6 0.0 0.0
00:16 5.8 3.6 86 1015.6 1.6 E 7.6 0.0 0.0
00:17 5.8 3.6 86 1015.7 4.5 ENE 7.6 0.0 0.0
00:18 5.8 3.6 86 1015.6 6.0 NW 7.6 0.0 0.0
00:19 5.8 3.6 86 1015.6 5.4 NW 6.9 0.0 0.0
00:20 5.8 3.6 86 1015.7 3.1 E 6.9 0.0 0.0
00:21 5.8 3.6 86 1015.7 3.1 NE 6.9 0.0 0.0
00:22 5.8 3.6 86 1015.8 3.8 NW 6.9 0.0 0.0
00:23 5.8 3.6 86 1015.8 3.8 NW 6.9 0.0 0.0
00:24 5.8 3.6 86 1015.8 3.1 N 6.9 0.0 0.0
00:25 5.8 3.6 86 1015.8 5.4 E 6.9 0.0 0.0
00:26 5.8 3.6 86 1015.8 6.0 NW 6.9 0.0 0.0
00:27 5.8 3.6 86 1015.7 5.4 W 6.9 0.0 0.0
00:28 5.8 3.6 86 1015.9 3.8 N 6.9 0.0 0.0
00:29 5.8 3.6 86 1015.8 3.1 E 6.9 0.0 0.0
00:30 5.8 3.6 86 1015.7 4.5 ENE 6.9 0.0 0.0
00:31 5.8 3.6 86 1015.9 4.5 ENE 6.9 0.0 0.0
00:32 5.8 3.6 86 1015.8 2.2 W 6.9 0.0 0.0
00:33 5.8 3.6 86 1015.8 5.4 N 6.0 0.0 0.0
00:34 5.8 3.6 86 1015.6 3.8 SW 6.0 0.0 0.0
00:35 5.8 3.6 86 1015.9 3.1 NE 6.0 0.0 0.0
00:36 5.9 3.7 86 1015.9 4.5 SW 6.0 0.0 0.0
00:38 5.9 3.7 86 1015.9 4.5 NW 7.6 0.0 0.0
00:39 5.9 3.7 86 1016.1 4.5 NW 7.6 0.0 0.0
00:40 5.9 3.7 86 1016.0 3.8 N 7.6 0.0 0.0
00:41 5.9 3.7 86 1015.9 3.8 E 7.6 0.0 0.0
00:42 5.9 3.7 86 1015.9 6.9 SW 7.6 0.0 0.0
00:43 5.9 3.7 86 1015.9 6.0 N 7.6 0.0 0.0
00:44 5.9 3.7 86 1015.9 5.4 NW 7.6 0.0 0.0
00:45 5.9 3.7 86 1015.9 3.8 NW 7.6 0.0 0.0
00:46 5.9 3.7 86 1016.0 5.4 NW 7.6 0.0 0.0
00:47 5.9 3.7 86 1015.9 4.5 SE 7.6 0.0 0.0
00:48 5.9 3.7 86 1015.9 4.5 S 7.6 0.0 0.0
00:49 5.9 3.7 86 1015.9 5.4 NW 7.6 0.0 0.0
00:50 6.0 3.8 86 1015.8 4.5 ESE 7.6 0.0 0.0
00:51 6.0 3.8 86 1015.9 6.0 SE 7.6 0.0 0.0
00:52 6.0 3.8 86 1016.1 6.0 E 7.6 0.0 0.0
00:53 6.0 3.8 86 1016.0 4.5 N 6.0 0.0 0.0
00:54 6.0 4.0 87 1016.1 4.5 W 6.0 0.0 0.0
00:55 6.0 4.0 87 1016.0 3.1 NE 6.0 0.0 0.0
00:56 6.0 3.8 86 1016.0 3.1 SE 6.0 0.0 0.0
00:57 6.0 3.8 86 1016.1 4.5 SE 6.0 0.0 0.0
00:58 5.9 3.7 86 1016.1 3.8 N 6.0 0.0 0.0
00:59 6.0 4.0 87 1016.3 3.8 SW 6.0 0.0 0.0
01:00 5.9 3.7 86 1016.1 6.9 E 6.9 0.0 0.0
01:01 6.0 4.0 87 1016.1 6.0 NW 6.9 0.0 0.0
01:02 6.0 4.0 87 1016.1 6.0 NW 6.9 0.0 0.0
01:03 6.0 4.0 87 1016.1 6.0 NW 6.9 0.0 0.0
01:04 6.0 4.0 87 1016.1 6.0 NW 6.9 0.0 0.0
01:05 6.0 4.0 87 1016.1 6.0 NW 6.9 0.0 0.0
01:06 6.0 4.0 87 1016.0 3.8 NW 6.9 0.0 0.0
01:07 6.0 3.8 86 1016.1 4.5 SE 6.9 0.0 0.0
01:08 6.0 4.0 87 1016.0 7.6 S 7.6 0.0 0.0
01:09 6.0 3.8 86 1016.0 6.9 SE 7.6 0.0 0.0
01:10 6.0 4.0 87 1016.0 6.0 SE 7.6 0.0 0.0
01:11 6.0 4.0 87 1016.1 4.5 NW 7.6 0.0 0.0
01:12 6.0 4.0 87 1016.1 3.8 SW 7.6 0.0 0.0
01:14 6.0 4.0 87 1016.1 6.0 S 8.3 0.0 0.0
01:15 6.0 4.0 87 1016.1 5.4 NW 8.3 0.0 0.0
01:16 6.0 4.0 87 1016.1 6.9 S 8.3 0.0 0.0
01:17 6.0 4.0 87 1016.1 6.0 SW 8.3 0.0 0.0
01:18 6.0 4.0 87 1016.1 3.8 SW 8.3 0.0 0.0
01:19 6.0 4.0 87 1016.2 6.0 N 8.3 0.0 0.0
01:20 6.0 3.8 86 1016.2 5.4 E 8.3 0.0 0.0
01:21 6.0 3.8 86 1016.3 6.0 E 8.3 0.0 0.0
01:22 6.0 3.8 86 1016.2 4.5 E 8.3 0.0 0.0
01:23 6.0 3.8 86 1016.2 8.3 E 8.3 0.0 0.0
01:24 6.0 3.8 86 1016.2 9.8 N 9.8 0.0 0.0
01:25 6.0 3.8 86 1016.2 5.4 E 9.8 0.0 0.0
01:26 6.0 3.8 86 1016.2 6.9 S 9.8 0.0 0.0
01:27 6.0 3.8 86 1016.3 8.3 WNW 9.8 0.0 0.0
01:28 6.0 3.8 86 1016.3 5.4 SW 9.8 0.0 0.0
01:29 6.0 3.8 86 1016.3 4.5 E 9.8 0.0 0.0
01:30 6.0 3.8 86 1016.4 7.6 SE 9.8 0.0 0.0
01:31 6.0 4.0 87 1016.3 6.9 N 9.8 0.0 0.0
01:33 6.0 4.0 87 1016.3 4.5 NE 9.8 0.0 0.0
01:34 6.0 3.8 86 1016.4 6.0 NE 8.3 0.0 0.0
01:35 6.0 4.0 87 1016.3 2.2 S 8.3 0.0 0.0
01:36 6.0 3.8 86 1016.3 5.4 S 8.3 0.0 0.0
01:37 6.0 4.0 87 1016.4 4.5 S 7.6 0.0 0.0
01:38 6.0 4.0 87 1016.3 3.1 NE 7.6 0.0 0.0
01:39 6.0 3.8 86 1016.3 4.5 NW 7.6 0.0 0.0
01:40 6.0 3.8 86 1016.3 4.5 NW 7.6 0.0 0.0
01:41 6.0 4.0 87 1016.3 4.5 NE 6.9 0.0 0.0
01:42 5.9 3.7 86 1016.3 5.4 E 6.9 0.0 0.0
01:43 6.0 3.8 86 1016.3 5.4 NW 6.9 0.0 0.0
01:44 5.9 3.7 86 1016.3 4.5 N 6.0 0.0 0.0
01:45 6.0 3.8 86 1016.2 4.5 NW 6.0 0.0 0.0
01:46 6.0 3.8 86 1016.3 6.9 NW 6.9 0.0 0.0
01:47 5.9 3.7 86 1016.3 5.4 NE 6.9 0.0 0.0
01:48 6.0 3.8 86 1016.3 4.5 SE 6.9 0.0 0.0
01:49 6.0 3.8 86 1016.3 3.1 S 6.9 0.0 0.0
01:50 5.9 3.7 86 1016.3 3.1 N 6.9 0.0 0.0
01:52 5.9 3.7 86 1016.3 4.5 E 6.9 0.0 0.0
01:53 6.0 3.8 86 1016.4 3.1 NW 6.9 0.0 0.0
01:54 5.9 3.7 86 1016.4 3.8 NW 6.9 0.0 0.0
01:55 5.9 3.7 86 1016.5 5.4 E 6.9 0.0 0.0
01:56 5.9 3.7 86 1016.3 3.8 ESE 5.4 0.0 0.0
01:57 5.9 3.7 86 1016.5 2.2 NE 5.4 0.0 0.0
01:58 5.9 3.7 86 1016.5 2.2 NE 5.4 0.0 0.0
01:59 5.9 3.7 86 1016.4 6.9 S 6.9 0.0 0.0
02:00 5.9 3.7 86 1016.4 5.4 SW 6.9 0.0 0.0
02:01 5.9 3.7 86 1016.4 3.1 W 6.9 0.0 0.0
02:02 5.9 3.7 86 1016.4 3.1 W 6.9 0.0 0.0
02:03 5.9 3.7 86 1016.4 3.1 W 6.9 0.0 0.0
02:04 5.9 3.7 86 1016.4 3.1 W 6.9 0.0 0.0
02:05 5.9 3.7 86 1016.3 3.1 W 6.9 0.0 0.0
02:06 5.9 3.7 86 1016.4 3.1 NW 6.9 0.0 0.0
02:07 6.0 3.8 86 1016.5 3.1 N 6.9 0.0 0.0
02:08 6.0 3.8 86 1016.4 3.1 N 6.9 0.0 0.0
02:09 6.0 3.8 86 1016.4 4.5 NE 5.4 0.0 0.0
02:11 5.9 3.7 86 1016.4 3.1 W 4.5 0.0 0.0
02:12 6.0 3.8 86 1016.3 3.1 NW 4.5 0.0 0.0
02:13 6.0 3.8 86 1016.5 5.4 NE 5.4 0.0 0.0
02:14 6.0 3.8 86 1016.5 8.3 NW 8.3 0.0 0.0
02:15 6.0 4.0 87 1016.4 7.6 S 8.3 0.0 0.0
02:16 6.0 3.8 86 1016.4 8.3 NW 8.3 0.0 0.0
02:17 6.0 4.0 87 1016.5 3.1 SW 8.3 0.0 0.0
02:18 6.0 3.8 86 1016.5 1.6 NE 8.3 0.0 0.0
02:19 6.0 4.0 87 1016.5 7.6 SW 8.3 0.0 0.0
02:20 6.0 4.0 87 1016.4 4.5 WNW 8.3 0.0 0.0
02:21 6.0 4.0 87 1016.4 4.5 W 8.3 0.0 0.0
02:22 6.0 3.8 86 1016.6 3.8 SE 8.3 0.0 0.0
02:23 6.0 4.0 87 1016.5 3.8 E 8.3 0.0 0.0
02:24 6.0 4.0 87 1016.7 4.5 E 8.3 0.0 0.0
02:25 6.0 4.0 87 1016.7 3.1 E 8.3 0.0 0.0
02:26 6.0 4.0 87 1016.7 4.5 N 8.3 0.0 0.0
02:27 6.0 4.0 87 1016.8 2.2 WNW 7.6 0.0 0.0
02:28 6.0 4.0 87 1016.7 3.1 SW 7.6 0.0 0.0
02:30 6.0 4.0 87 1016.6 3.1 N 4.5 0.0 0.0
02:31 6.0 4.0 87 1016.6 5.4 NE 5.4 0.0 0.0
02:32 6.0 4.0 87 1016.7 4.5 NE 5.4 0.0 0.0
02:33 6.0 4.0 87 1016.6 1.6 ENE 5.4 0.0 0.0
02:34 6.1 4.1 87 1016.5 4.5 NE 5.4 0.0 0.0
02:35 6.1 4.1 87 1016.5 3.1 E 5.4 0.0 0.0
02:36 6.1 4.1 87 1016.4 5.4 NW 5.4 0.0 0.0
02:37 6.1 4.1 87 1016.4 3.1 NW 5.4 0.0 0.0
02:38 6.0 4.0 87 1016.5 3.1 E 5.4 0.0 0.0
02:39 6.0 4.0 87 1016.5 4.5 ENE 5.4 0.0 0.0
02:40 6.0 4.0 87 1016.5 4.5 N 5.4 0.0 0.0
02:41 6.0 4.0 87 1016.5 3.8 S 5.4 0.0 0.0
02:42 6.0 4.0 87 1016.5 3.8 NW 5.4 0.0 0.0
02:43 6.0 4.0 87 1016.5 6.0 N 6.0 0.0 0.0
02:44 6.0 4.0 87 1016.8 6.0 NE 6.0 0.0 0.0
02:45 6.0 4.0 87 1016.8 6.0 E 6.0 0.0 0.0
02:46 6.0 4.2 88 1016.7 3.1 NE 6.0 0.0 0.0
02:47 6.0 4.0 87 1016.8 3.1 SE 6.0 0.0 0.0
02:49 6.0 4.2 88 1016.6 2.2 SE 6.0 0.0 0.0
02:50 6.0 4.2 88 1016.6 4.5 NNE 6.0 0.0 0.0
02:51 6.0 4.2 88 1016.6 4.5 NW 6.0 0.0 0.0
02:52 6.0 4.2 88 1016.6 4.5 NE 6.0 0.0 0.0
02:53 5.9 4.1 88 1016.6 4.5 ENE 6.0 0.0 0.0
02:54 6.0 4.2 88 1016.6 8.3 NW 8.3 0.0 0.0
02:55 6.0 4.2 88 1016.6 8.3 NW 8.3 0.0 0.0
02:56 5.9 4.1 88 1016.5 6.0 SE 8.3 0.0 0.0
02:57 5.9 4.1 88 1016.5 7.6 NW 8.3 0.0 0.0
02:58 5.9 4.1 88 1016.5 4.5 N 8.3 0.0 0.0
02:59 5.9 4.1 88 1016.6 3.8 NE 8.3 0.0 0.0
03:00 5.9 4.1 88 1016.6 3.1 E 8.3 0.0 0.0
03:01 5.9 4.1 88 1016.6 3.1 E 8.3 0.0 0.0
03:02 5.9 4.1 88 1016.8 3.1 E 8.3 0.0 0.0
03:03 5.9 4.1 88 1016.7 3.1 E 8.3 0.0 0.0
03:04 5.9 4.1 88 1016.6 3.1 E 8.3 0.0 0.0
03:05 5.9 4.1 88 1016.7 4.5 NW 7.6 0.0 0.0
03:06 5.9 4.1 88 1016.7 3.8 NE 7.6 0.0 0.0
03:08 5.9 4.1 88 1016.7 4.5 S 4.5 0.0 0.0
03:09 5.9 4.2 89 1016.9 3.1 SW 5.4 0.0 0.0
03:10 5.9 4.1 88 1016.8 3.1 N 5.4 0.0 0.0
03:11 5.8 4.1 89 1016.8 2.2 NE 5.4 0.0 0.0
03:12 5.8 4.0 88 1016.8 5.4 SE 5.4 0.0 0.0
03:13 5.8 4.1 89 1016.8 3.1 SW 5.4 0.0 0.0
03:14 5.8 4.1 89 1016.8 3.1 SW 5.4 0.0 0.0
03:15 5.7 4.0 89 1016.8 3.1 S 5.4 0.0 0.0
03:16 5.8 4.0 88 1017.0 3.8 SE 5.4 0.0 0.0
03:17 5.8 4.1 89 1016.7 3.1 W 5.4 0.0 0.0
03:18 5.8 4.1 89 1016.8 4.5 ENE 5.4 0.0 0.0
03:19 5.8 4.0 88 1016.8 3.1 NW 5.4 0.0 0.0
03:20 5.8 4.0 88 1016.8 4.5 E 5.4 0.0 0.0
03:21 5.8 4.1 89 1016.8 4.5 SE 5.4 0.0 0.0
03:22 5.8 4.1 89 1016.8 3.8 SW 5.4 0.0 0.0
03:23 5.8 4.1 89 1016.8 4.5 E 4.5 0.0 0.0
03:24 5.8 4.1 89 1017.0 3.8 S 4.5 0.0 0.0
03:25 5.8 4.1 89 1016.8 2.2 NE 4.5 0.0 0.0
03:26 5.8 4.1 89 1016.8 3.1 NW 4.5 0.0 0.0
03:28 5.8 4.1 89 1016.7 2.2 NNE 4.5 0.0 0.0
03:29 5.8 4.1 89 1016.6 3.1 NW 4.5 0.0 0.0
03:30 5.8 4.1 89 1016.6 6.0 E 6.0 0.0 0.0
03:31 5.8 4.1 89 1016.6 6.0 WNW 6.0 0.0 0.0
03:32 5.8 4.1 89 1016.5 4.5 NW 6.0 0.0 0.0
03:33 5.8 4.1 89 1016.7 7.6 NNE 7.6 0.0 0.0
03:34 5.8 4.1 89 1016.7 7.6 NNE 7.6 0.0 0.0
03:35 5.8 4.1 89 1016.8 6.0 NE 7.6 0.0 0.0
03:36 5.8 4.1 89 1016.7 6.9 N 7.6 0.0 0.0
03:37 5.8 4.1 89 1016.5 4.5 NW 7.6 0.0 0.0
03:38 5.8 4.1 89 1016.5 3.1 N 7.6 0.0 0.0
03:39 5.8 4.1 89 1016.6 3.1 NW 7.6 0.0 0.0
03:40 5.8 4.1 89 1016.6 4.5 SSW 7.6 0.0 0.0
03:41 5.8 4.1 89 1016.6 3.8 N 7.6 0.0 0.0
03:42 5.8 4.1 89 1016.4 6.0 SW 7.6 0.0 0.0
03:43 5.8 4.1 89 1016.5 3.1 SW 7.6 0.0 0.0
03:44 5.8 4.1 89 1016.6 1.6 SW 6.9 0.0 0.0
03:45 5.8 4.1 89 1016.4 3.8 NE 6.9 0.0 0.0
03:47 5.8 4.1 89 1016.4 6.9 NE 6.9 0.0 0.0
03:48 5.8 4.1 89 1016.4 6.9 NW 6.9 0.0 0.0
03:49 5.8 4.1 89 1016.4 3.1 N 6.9 0.0 0.0
03:50 5.8 4.1 89 1016.4 5.4 NE 6.9 0.0 0.0
03:51 5.7 4.0 89 1016.5 5.4 N 6.9 0.0 0.0
03:52 5.8 4.1 89 1016.4 3.8 N 6.9 0.0 0.0
03:53 5.7 4.0 89 1016.4 3.8 N 6.9 0.0 0.0
03:54 5.7 4.0 89 1016.5 3.8 SE 6.9 0.0 0.0
03:55 5.7 4.0 89 1016.4 4.5 E 6.9 0.0 0.0
03:56 5.7 4.0 89 1016.5 5.4 W 6.9 0.0 0.0
03:57 5.7 4.0 89 1016.7 5.4 E 6.9 0.0 0.0
03:58 5.7 4.0 89 1016.7 5.4 E 6.9 0.0 0.0
03:59 5.7 4.0 89 1016.6 3.8 NW 5.4 0.0 0.0
04:00 5.7 4.0 89 1016.5 4.5 W 5.4 0.0 0.0
04:01 5.7 4.0 89 1016.3 6.9 E 6.9 0.0 0.0
04:02 5.7 4.0 89 1016.3 6.9 E 6.9 0.0 0.0
04:03 5.7 4.0 89 1016.3 6.9 E 6.9 0.0 0.0
04:04 5.7 4.0 89 1016.3 6.9 E 6.9 0.0 0.0
04:05 5.7 4.0 89 1016.4 6.9 E 6.9 0.0 0.0
04:06 5.7 4.0 89 1016.4 6.9 E 6.9 0.0 0.0
04:07 5.7 4.0 89 1016.4 6.9 E 6.9 0.0 0.0
04:08 5.7 4.0 89 1016.6 6.9 E 6.9 0.0 0.0
04:09 5.8 4.1 89 1016.5 6.0 NE 8.3 0.0 0.0
04:11 5.8 4.1 89 1016.7 6.0 S 8.3 0.0 0.0
04:12 5.8 4.1 89 1016.6 3.8 S 8.3 0.0 0.0
04:13 5.8 4.1 89 1016.5 7.6 E 8.3 0.0 0.0
04:14 5.8 4.1 89 1016.6 6.0 N 8.3 0.0 0.0
04:15 5.7 4.0 89 1016.6 3.1 N 8.3 0.0 0.0
04:16 5.8 4.1 89 1016.6 4.5 SE 8.3 0.0 0.0
04:17 5.8 4.1 89 1016.6 1.6 N 8.3 0.0 0.0
04:18 5.8 4.1 89 1016.7 4.5 NE 8.3 0.0 0.0
04:19 5.8 4.1 89 1016.6 7.6 NE 8.3 0.0 0.0
04:20 5.8 4.1 89 1016.6 7.6 NE 7.6 0.0 0.0
04:21 5.8 4.1 89 1016.6 3.8 NE 7.6 0.0 0.0
04:22 5.8 4.1 89 1016.7 2.2 SE 7.6 0.0 0.0
04:23 5.8 4.1 89 1016.5 3.8 W 7.6 0.0 0.0
04:24 5.8 4.1 89 1016.5 6.9 S 7.6 0.0 0.0
04:25 5.8 4.1 89 1016.7 3.8 NW 7.6 0.0 0.0
04:26 5.8 4.1 89 1016.7 4.5 N 7.6 0.0 0.0
04:27 5.8 4.1 89 1016.8 3.1 N 7.6 0.0 0.0
04:28 5.8 4.1 89 1016.6 3.1 NW 7.6 0.0 0.0
04:30 5.8 4.1 89 1016.5 5.4 NW 6.9 0.0 0.0
04:31 5.8 4.1 89 1016.7 7.6 S 7.6 0.0 0.0
04:32 5.8 4.1 89 1016.6 9.2 SW 9.2 0.0 0.0
04:33 5.8 4.1 89 1016.7 3.8 SE 9.2 0.0 0.0
04:34 5.8 4.1 89 1016.7 3.8 NW 9.2 0.0 0.0
04:35 5.8 4.1 89 1016.7 3.8 NW 9.2 0.0 0.0
04:36 5.8 4.1 89 1016.5 4.5 NW 9.2 0.0 0.0
04:37 5.8 4.1 89 1016.7 5.4 S 9.2 0.0 0.0
04:38 5.8 4.1 89 1016.6 3.1 SW 9.2 0.0 0.0
04:39 5.8 4.1 89 1016.7 2.2 NW 9.2 0.0 0.0
04:40 5.8 4.1 89 1016.7 2.2 NW 9.2 0.0 0.0
04:41 5.8 4.1 89 1016.8 5.4 SE 9.2 0.0 0.0
04:42 5.8 4.1 89 1016.8 6.0 W 9.2 0.0 0.0
04:43 5.8 4.1 89 1016.7 3.1 NE 6.0 0.0 0.0
04:44 5.8 4.1 89 1016.6 5.4 SE 6.0 0.0 0.0
04:45 5.8 4.1 89 1016.6 3.8 N 6.0 0.0 0.0
04:46 5.8 4.1 89 1016.6 4.5 NE 6.0 0.0 0.0
04:47 5.8 4.1 89 1016.8 6.0 SE 6.0 0.0 0.0
04:49 5.8 4.1 89 1016.8 4.5 SW 6.9 0.0 0.0
04:50 5.8 4.1 89 1016.7 3.1 NE 6.9 0.0 0.0
04:51 5.8 4.1 89 1016.8 5.4 N 6.9 0.0 0.0
04:52 5.8 4.1 89 1016.8 6.9 NE 6.9 0.0 0.0
04:53 5.8 4.1 89 1016.7 3.1 E 6.9 0.0 0.0
04:54 5.8 4.1 89 1016.7 3.1 E 6.9 0.0 0.0
04:55 5.8 4.1 89 1016.7 1.6 W 6.9 0.0 0.0
04:56 5.8 4.1 89 1016.6 1.6 E 6.9 0.0 0.0
04:57 5.8 4.1 89 1016.7 3.1 SW 6.9 0.0 0.0
04:58 5.8 4.1 89 1016.7 3.8 NW 6.9 0.0 0.0
04:59 5.8 4.1 89 1016.9 3.1 SSW 6.9 0.0 0.0
05:00 5.8 4.1 89 1016.9 3.1 SSW 6.9 0.0 0.0
05:01 5.8 4.1 89 1016.7 2.2 N 6.9 0.0 0.0
05:02 5.8 4.1 89 1016.8 2.2 N 6.9 0.0 0.0
05:03 5.8 4.1 89 1016.8 2.2 N 3.8 0.0 0.0
05:04 5.8 4.1 89 1016.7 2.2 N 3.8 0.0 0.0
05:05 5.8 4.1 89 1016.8 2.2 N 3.8 0.0 0.0
05:06 5.8 4.1 89 1016.8 2.2 SE 3.8 0.0 0.0
05:07 5.8 4.1 89 1016.8 5.4 ESE 5.4 0.0 0.0
05:08 5.8 4.1 89 1016.9 3.1 NE 5.4 0.0 0.0
05:09 5.8 4.1 89 1016.8 4.5 E 6.0 0.0 0.0
05:11 5.8 4.1 89 1017.0 3.1 NW 6.0 0.0 0.0
05:12 5.8 4.1 89 1017.1 7.6 SE 7.6 0.0 0.0
05:13 5.8 4.1 89 1016.8 2.2 N 7.6 0.0 0.0
05:14 5.8 4.1 89 1016.9 2.2 NW 7.6 0.0 0.0
05:15 5.8 4.1 89 1016.9 2.2 NW 7.6 0.0 0.0
05:16 5.8 4.1 89 1016.8 3.1 E 7.6 0.0 0.0
05:17 5.8 4.1 89 1016.9 3.1 N 7.6 0.0 0.0
05:18 5.8 4.1 89 1017.0 4.5 E 7.6 0.0 0.0
05:19 5.8 4.1 89 1016.9 2.2 SE 7.6 0.0 0.0
05:20 5.8 4.1 89 1016.9 2.2 SE 7.6 0.0 0.0
05:21 5.8 4.1 89 1017.0 3.8 N 7.6 0.0 0.0
05:22 5.8 4.1 89 1016.9 6.0 SE 7.6 0.0 0.0
05:23 5.8 4.1 89 1016.8 3.1 W 6.0 0.0 0.0
05:24 5.8 4.1 89 1016.9 3.8 SW 6.0 0.0 0.0
05:25 5.8 4.1 89 1016.9 4.5 NE 6.0 0.0 0.0
05:26 5.8 4.1 89 1017.0 4.5 NE 6.0 0.0 0.0
05:27 5.8 4.1 89 1016.9 6.0 S 6.0 0.0 0.0
05:28 5.8 4.1 89 1016.9 6.0 S 6.0 0.0 0.0
05:30 5.8 4.1 89 1016.9 3.1 S 6.0 0.0 0.0
05:31 5.8 4.1 89 1016.9 4.5 NW 6.0 0.0 0.0
05:32 5.8 4.1 89 1016.8 3.1 NW 6.0 0.0 0.0
05:33 5.8 4.1 89 1017.0 4.5 SE 6.0 0.0 0.0
05:34 5.8 4.1 89 1016.9 5.4 NW 6.0 0.0 0.0
05:35 5.8 4.1 89 1016.8 6.9 SSW 6.9 0.0 0.0
05:36 5.8 4.1 89 1016.9 9.2 N 9.2 0.0 0.0
05:37 5.8 4.1 89 1016.9 8.3 SE 9.2 0.0 0.0
05:38 5.8 4.1 89 1016.8 6.0 NW 9.2 0.0 0.0
05:39 5.8 4.1 89 1016.8 3.1 E 9.2 0.0 0.0
05:40 5.8 4.1 89 1016.8 3.1 E 9.2 0.0 0.0
05:41 5.8 4.1 89 1017.0 5.4 NE 9.2 0.0 0.0
05:42 5.8 4.1 89 1016.8 3.8 S 9.2 0.0 0.0
05:43 5.8 4.1 89 1016.7 4.5 SE 9.2 0.0 0.0
05:44 5.8 4.1 89 1016.8 6.9 W 9.2 0.0 0.0
05:45 5.8 4.1 89 1016.8 6.0 NW 9.2 0.0 0.0
05:46 5.8 4.1 89 1016.8 4.5 N 8.3 0.0 0.0
05:48 5.8 4.1 89 1016.8 4.5 SE 6.9 0.0 0.0
05:49 5.8 4.1 89 1016.9 8.3 NE 8.3 0.0 0.0
05:50 5.8 4.1 89 1016.9 6.0 SE 8.3 0.0 0.0
05:51 5.8 4.1 89 1016.9 5.4 NE 8.3 0.0 0.0
05:52 5.8 4.1 89 1017.0 3.8 N 8.3 0.0 0.0
05:53 5.8 4.1 89 1017.0 3.8 N 8.3 0.0 0.0
05:54 5.8 4.1 89 1017.1 4.5 NE 8.3 0.0 0.0
05:55 5.8 4.1 89 1016.9 4.5 SW 8.3 0.0 0.0
05:56 5.9 4.2 89 1017.1 6.9 E 8.3 0.0 0.0
05:57 5.8 4.1 89 1017.0 4.5 SW 8.3 0.0 0.0
05:58 5.9 4.2 89 1017.0 3.8 NW 8.3 0.0 0.0
05:59 5.7 4.0 89 1017.0 3.8 WNW 8.3 0.0 0.0
06:00 5.8 4.1 89 1017.0 7.6 NW 8.3 0.0 0.0
06:01 5.8 4.1 89 1017.0 7.6 NW 8.3 0.0 0.0
06:02 5.8 4.1 89 1016.8 7.6 NW 8.3 0.0 0.0
06:03 5.8 4.1 89 1016.9 7.6 NW 8.3 0.0 0.0
06:04 5.8 4.1 89 1016.8 7.6 NW 8.3 0.0 0.0
06:05 5.8 4.1 89 1017.0 7.6 S 7.6 0.0 0.0
06:06 5.8 4.1 89 1016.9 5.4 N 7.6 0.0 0.0
06:08 5.8 4.1 89 1016.9 4.5 N 7.6 0.0 0.0
06:09 5.8 4.1 89 1016.9 4.5 N 7.6 0.0 0.0
06:10 5.8 4.0 88 1016.9 4.5 E 7.6 0.0 0.0
06:11 5.8 4.0 88 1016.9 5.4 SE 7.6 0.0 0.0
06:12 5.9 4.1 88 1016.8 5.4 NE 7.6 0.0 0.0
06:13 5.9 4.1 88 1017.0 3.8 N 7.6 0.0 0.0
06:14 5.9 4.1 88 1016.8 6.0 N 7.6 0.0 0.0
06:15 5.8 4.0 88 1016.9 4.5 N 7.6 0.0 0.0
06:16 5.8 4.0 88 1016.9 5.4 E 6.0 0.0 0.0
06:17 5.8 4.0 88 1016.9 6.9 NW 6.9 0.0 0.0
06:18 5.9 4.2 89 1016.9 3.8 NE 6.9 0.0 0.0
06:19 5.9 4.1 88 1016.9 6.0 ENE 6.9 0.0 0.0
06:20 5.9 4.1 88 1016.9 6.0 ENE 6.9 0.0 0.0
06:21 5.8 4.0 88 1017.0 5.4 S 6.9 0.0 0.0
06:22 5.9 4.1 88 1017.0 8.3 NW 8.3 0.0 0.0
06:23 5.8 4.0 88 1017.0 7.6 NW 8.3 0.0 0.0
06:24 5.8 4.0 88 1017.0 3.8 NW 8.3 0.0 0.0
06:26 5.8 4.0 88 1016.8 8.3 NW 8.3 0.0 0.0
06:27 5.8 4.0 88 1017.0 4.5 NW 8.3 0.0 0.0
06:28 5.8 4.0 88 1017.0 6.0 NE 8.3 0.0 0.0
06:29 5.8 4.1 89 1017.1 4.5 SW 8.3 0.0 0.0
06:30 5.8 4.0 88 1017.1 2.2 N 8.3 0.0 0.0
06:31 5.8 4.0 88 1017.1 2.2 N 8.3 0.0 0.0
06:32 5.8 4.0 88 1016.9 3.1 N 8.3 0.0 0.0
06:33 5.8 4.0 88 1016.9 5.4 ESE 8.3 0.0 0.0
06:34 5.8 4.0 88 1017.0 5.4 N 8.3 0.0 0.0
06:35 5.8 4.0 88 1016.9 6.9 N 8.3 0.0 0.0
06:36 5.8 4.0 88 1016.7 5.4 E 8.3 0.0 0.0
06:37 5.8 4.0 88 1016.7 5.4 SW 6.9 0.0 0.0
06:38 5.8 4.0 88 1016.8 3.8 NW 6.9 0.0 0.0
06:39 5.8 4.0 88 1016.9 3.1 S 6.9 0.0 0.0
06:40 5.8 4.0 88 1016.7 3.1 S 6.9 0.0 0.0
06:41 5.7 3.9 88 1016.8 1.6 SE 6.9 0.0 0.0
06:42 5.7 3.9 88 1016.7 6.0 N 6.9 0.0 0.0
06:43 5.7 3.9 88 1016.9 8.3 NE 8.3 0.0 0.0
06:44 5.7 3.9 88 1016.9 5.4 NW 8.3 0.0 0.0
06:46 5.7 3.9 88 1017.0 6.9 NW 8.3 0.0 0.0
06:47 5.7 3.9 88 1016.9 3.8 ENE 8.3 0.0 0.0
06:48 5.7 3.9 88 1017.1 4.5 NE 8.3 0.0 0.0
06:49 5.7 3.9 88 1016.9 4.5 SE 8.3 0.0 0.0
06:50 5.7 3.9 88 1016.9 4.5 SE 8.3 0.0 0.0
06:51 5.7 3.9 88 1016.9 4.5 E 8.3 0.0 0.0
06:52 5.7 3.9 88 1016.8 6.9 N 8.3 0.0 0.0
06:53 5.7 3.9 88 1017.0 3.8 NW 8.3 0.0 0.0
06:54 5.7 3.9 88 1017.0 4.5 SE 6.9 0.0 0.0
06:55 5.7 3.9 88 1017.1 6.9 SW 6.9 0.0 0.0
06:56 5.7 3.9 88 1016.8 10.7 SE 10.7 0.0 0.0
06:57 5.7 3.9 88 1016.8 6.9 SE 10.7 0.0 0.0
06:58 5.7 3.9 88 1016.8 5.4 SE 10.7 0.0 0.0
06:59 5.7 3.9 88 1016.8 6.0 NW 10.7 0.0 0.0
07:00 5.7 3.9 88 1016.8 6.9 SE 10.7 0.0 0.0
07:01 5.7 3.9 88 1017.0 6.9 SE 10.7 0.0 0.0
07:02 5.7 3.9 88 1016.9 6.9 SE 10.7 0.0 0.0
07:03 5.7 3.9 88 1016.9 6.9 SE 10.7 0.0 0.0
07:04 5.7 3.9 88 1017.0 6.9 SE 10.7 0.0 0.0
07:05 5.7 3.9 88 1017.1 6.9 SE 10.7 0.0 0.0
07:06 5.7 3.9 88 1017.0 6.0 SE 8.3 0.0 0.0
07:07 5.7 3.9 88 1016.9 5.4 SE 8.3 0.0 0.0
07:09 5.7 3.9 88 1017.1 2.2 NW 9.8 0.0 0.0
07:10 5.7 3.9 88 1016.9 4.5 NW 9.8 0.0 0.0
07:11 5.8 4.0 88 1017.1 7.6 E 9.8 0.0 0.0
07:12 5.7 3.9 88 1017.1 5.4 SE 9.8 0.0 0.0
07:13 5.7 3.9 88 1016.9 7.6 NNE 9.8 0.0 0.0
07:14 5.7 3.9 88 1017.1 8.3 E 9.8 0.0 0.0
07:15 5.7 3.9 88 1017.2 5.4 S 9.8 0.0 0.0
07:16 5.7 3.9 88 1017.4 6.0 S 9.8 0.0 0.0
07:17 5.7 3.9 88 1017.3 5.4 E 9.8 0.0 0.0
07:18 5.8 4.0 88 1017.3 3.8 N 9.8 0.0 0.0
07:19 5.7 3.9 88 1017.4 8.3 E 8.3 0.0 0.0
07:20 5.7 3.9 88 1017.3 6.0 ESE 8.3 0.0 0.0
07:21 5.7 3.9 88 1017.4 6.0 N 8.3 0.0 0.0
07:22 5.7 3.9 88 1017.3 9.8 SE 9.8 0.0 0.0
07:23 5.7 3.9 88 1017.4 6.9 N 9.8 0.0 0.0
07:24 5.7 3.9 88 1017.2 5.4 SE 9.8 0.0 0.0
07:25 5.8 4.0 88 1017.4 3.1 E 9.8 0.0 0.0
07:26 5.8 4.0 88 1017.5 3.8 NW 9.8 0.0 0.0
07:28 5.8 4.0 88 1017.5 4.5 E 9.8 0.0 0.0
07:29 5.7 3.9 88 1017.5 4.5 NW 9.8 0.0 0.0
07:30 5.7 3.9 88 1017.5 5.4 SE 9.8 0.0 0.0
07:31 5.7 3.9 88 1017.4 6.9 SE 9.8 0.0 0.0
07:32 5.7 3.9 88 1017.5 6.0 SE 7.6 0.0 0.0
07:33 5.7 3.9 88 1017.5 6.9 SE 7.6 0.0 0.0
07:34 5.7 3.9 88 1017.5 6.9 SE 7.6 0.0 0.0
07:35 5.7 3.9 88 1017.5 3.1 NW 7.6 0.0 0.0
07:36 5.7 3.9 88 1017.6 9.2 E 9.2 0.0 0.0
07:37 5.7 3.9 88 1017.5 4.5 NW 9.2 0.0 0.0
07:38 5.8 4.0 88 1017.7 8.3 WNW 9.2 0.0 0.0
07:39 5.8 4.0 88 1017.6 4.5 S 9.2 0.0 0.0
07:40 5.8 4.0 88 1017.5 6.0 S 9.2 0.0 0.0
07:42 5.8 4.0 88 1017.6 5.4 S 9.2 0.0 0.0
07:44 5.8 4.0 88 1017.6 7.6 SE 9.8 0.0 0.0
07:45 5.8 4.0 88 1017.6 3.1 SW 9.8 0.0 0.0
07:46 5.8 4.0 88 1017.8 3.8 WNW 9.8 0.0 0.0
07:47 5.8 4.0 88 1017.8 3.1 NW 9.8 0.0 0.0
07:48 5.8 4.0 88 1017.8 3.8 SE 9.8 0.0 0.0
07:49 5.8 4.0 88 1017.7 4.5 S 9.8 0.0 0.0
07:50 5.8 4.0 88 1017.8 3.8 SE 9.8 0.0 0.0
07:51 5.8 4.0 88 1017.6 5.4 NNE 9.8 0.0 0.0
07:52 5.8 4.0 88 1017.7 3.8 SE 9.8 0.0 0.0
07:53 5.8 4.0 88 1017.7 4.5 SE 9.8 0.0 0.0
07:54 5.8 4.0 88 1017.7 6.0 ESE 6.0 0.0 0.0
07:55 5.8 4.0 88 1017.7 6.0 ESE 6.0 0.0 0.0
07:56 5.8 4.0 88 1017.7 3.1 ENE 6.0 0.0 0.0
07:58 5.8 4.0 88 1017.7 9.8 NW 9.8 0.0 0.0
07:59 5.8 4.0 88 1017.6 8.3 E 9.8 0.0 0.0
08:00 5.8 4.0 88 1017.6 8.3 N 9.8 0.0 0.0
08:01 5.8 4.0 88 1017.5 5.4 NW 9.8 0.0 0.0
08:02 5.8 4.0 88 1017.5 5.4 NW 9.8 0.0 0.0
08:03 5.8 4.0 88 1017.5 4.5 E 9.8 0.0 0.0
08:04 5.8 4.0 88 1017.5 3.1 NE 9.8 0.0 0.0
08:05 5.8 4.0 88 1017.5 4.5 NW 9.8 0.0 0.0
08:06 5.8 4.0 88 1017.5 7.6 SE 9.8 0.0 0.0
08:07 5.8 4.0 88 1017.8 5.4 ENE 9.8 0.0 0.0
08:08 5.8 4.0 88 1017.8 6.0 NE 9.8 0.0 0.0
08:09 5.8 4.0 88 1017.7 8.3 SW 8.3 0.0 0.0
08:10 5.8 4.0 88 1017.8 6.9 S 8.3 0.0 0.0
08:12 5.8 4.0 88 1017.7 6.9 S 8.3 0.0 0.0
08:13 5.8 4.0 88 1017.8 5.4 NW 8.3 0.0 0.0
08:14 5.8 4.0 88 1017.9 7.6 SE 8.3 0.0 0.0
08:15 5.8 4.0 88 1017.9 7.6 SE 8.3 0.0 0.0
08:16 5.8 4.0 88 1017.9 9.2 S 9.2 0.0 0.0
08:17 5.8 4.0 88 1017.9 7.6 SE 9.2 0.0 0.0
08:18 5.8 4.0 88 1017.9 6.0 SE 9.2 0.0 0.0
08:19 5.8 4.0 88 1017.9 9.2 S 9.2 0.0 0.0
08:20 5.8 4.0 88 1017.9 9.2 S 9.2 0.0 0.0
08:21 5.8 4.0 88 1018.1 6.9 SE 9.2 0.0 0.0
08:22 5.8 4.0 88 1018.1 8.3 S 9.2 0.0 0.0
08:23 5.8 4.0 88 1018.1 4.5 N 9.2 0.0 0.0
08:24 5.8 4.0 88 1018.2 7.6 SE 9.2 0.0 0.0
08:25 5.8 4.0 88 1018.2 7.6 SE 9.2 0.0 0.0
08:27 5.8 3.8 87 1018.2 6.0 SE 9.2 0.0 0.0
08:28 5.8 4.0 88 1018.1 11.4 ESE 11.4 0.0 0.0
08:29 5.9 4.1 88 1018.2 7.6 SE 11.4 0.0 0.0
08:30 5.8 4.0 88 1018.2 8.3 ENE 11.4 0.0 0.0
08:31 5.8 4.0 88 1018.2 7.6 S 11.4 0.0 0.0
08:32 5.8 4.0 88 1018.3 4.5 W 11.4 0.0 0.0
08:33 5.9 4.1 88 1018.3 6.9 E 11.4 0.0 0.0
08:34 5.9 3.9 87 1018.2 5.4 NW 11.4 0.0 0.0
08:35 5.8 4.0 88 1018.2 3.8 NE 11.4 0.0 0.0
08:36 5.9 4.1 88 1018.2 5.4 SE 11.4 0.0 0.0
08:37 5.9 3.9 87 1018.2 5.4 NW 11.4 0.0 0.0
08:38 5.8 4.0 88 1018.3 5.4 NW 8.3 0.0 0.0
08:39 5.8 3.8 87 1018.3 4.5 SE 8.3 0.0 0.0
08:41 5.8 3.8 87 1018.3 7.6 S 7.6 0.0 0.0
08:42 5.8 4.0 88 1018.2 8.3 NE 8.3 0.0 0.0
08:43 5.9 4.1 88 1018.3 3.1 NE 8.3 0.0 0.0
08:44 5.8 3.8 87 1018.3 5.4 NE 8.3 0.0 0.0
08:45 5.8 3.8 87 1018.3 6.0 SE 8.3 0.0 0.0
08:46 5.8 3.8 87 1018.4 6.0 S 8.3 0.0 0.0
08:47 5.8 3.8 87 1018.3 6.0 E 8.3 0.0 0.0
08:48 5.9 4.1 88 1018.3 6.0 NW 8.3 0.0 0.0
08:49 5.9 3.9 87 1018.3 3.1 SE 8.3 0.0 0.0
08:50 5.9 3.9 87 1018.3 3.8 S 8.3 0.0 0.0
08:51 5.8 3.8 87 1018.2 4.5 E 8.3 0.0 0.0
08:52 5.9 3.9 87 1018.2 6.0 NE 8.3 0.0 0.0
08:53 5.9 3.9 87 1018.2 6.9 NW 8.3 0.0 0.0
08:54 5.9 4.1 88 1018.3 4.5 N 6.9 0.0 0.0
08:55 5.9 3.9 87 1018.0 6.0 NW 6.9 0.0 0.0
08:57 5.9 3.9 87 1018.3 4.5 E 6.9 0.0 0.0
08:58 5.9 3.9 87 1018.2 6.9 S 7.6 0.0 0.0
08:59 5.9 3.9 87 1018.2 4.5 ENE 7.6 0.0 0.0
09:00 5.9 4.1 88 1018.4 3.1 SW 7.6 0.0 0.0
09:01 5.9 3.9 87 1018.4 6.0 SW 7.6 0.0 0.0
09:02 5.9 3.9 87 1018.1 6.0 SW 7.6 0.0 0.0
09:03 5.9 3.9 87 1018.2 6.0 SE 7.6 0.0 0.0
09:04 5.9 3.9 87 1018.4 9.2 SE 9.2 0.0 0.0
09:05 5.9 3.9 87 1018.3 6.0 NE 9.2 0.0 0.0
09:06 5.9 3.9 87 1018.4 4.5 SW 9.2 0.0 0.0
09:07 5.9 3.9 87 1018.4 5.4 SW 9.2 0.0 0.0
09:08 5.9 3.9 87 1018.5 4.5 S 9.2 0.0 0.0
09:09 5.9 3.9 87 1018.6 4.5 N 9.2 0.0 0.0
09:10 5.9 3.9 87 1018.4 4.5 NW 9.2 0.0 0.0
09:11 5.9 3.9 87 1018.5 8.3 S 9.2 0.0 0.0
09:12 5.9 3.9 87 1018.5 5.4 S 9.2 0.0 0.0
09:13 5.9 3.9 87 1018.6 4.5 S 9.2 0.0 0.0
09:14 5.9 3.9 87 1018.4 6.9 SE 9.2 0.0 0.0
09:15 5.9 3.9 87 1018.4 6.9 NW 8.3 0.0 0.0
09:17 5.9 3.9 87 1018.4 6.0 S 8.3 0.0 0.0
09:18 5.9 3.9 87 1018.3 5.4 SE 9.8 0.0 0.0
09:19 5.9 3.9 87 1018.4 6.0 E 9.8 0.0 0.0
09:20 5.9 3.9 87 1018.4 5.4 NE 9.8 0.0 0.0
09:21 5.9 3.9 87 1018.4 6.0 NE 9.8 0.0 0.0
09:22 5.9 3.9 87 1018.3 6.0 NE 9.8 0.0 0.0
09:23 5.9 3.9 87 1018.4 6.0 NE 9.8 0.0 0.0
09:24 5.9 3.9 87 1018.6 4.5 NW 9.8 0.0 0.0
09:25 5.9 3.9 87 1018.6 2.2 N 9.8 0.0 0.0
09:26 5.9 3.9 87 1018.7 3.8 S 9.8 0.0 0.0
09:27 5.9 3.9 87 1018.5 5.4 SSW 9.8 0.0 0.0
09:28 5.9 3.9 87 1018.6 3.8 NE 7.6 0.0 0.0
09:29 5.9 3.9 87 1018.8 3.8 N 7.6 0.0 0.0
09:30 6.0 4.0 87 1018.7 9.8 NW 9.8 0.0 0.0
09:32 5.9 3.9 87 1018.7 9.8 SE 9.8 0.0 0.0
09:33 5.9 3.9 87 1018.8 4.5 NW 9.8 0.0 0.0
09:34 6.0 4.0 87 1018.8 4.5 S 9.8 0.0 0.0
09:35 6.0 4.0 87 1018.7 3.8 E 9.8 0.0 0.0
09:36 6.0 4.0 87 1018.8 2.2 E 9.8 0.0 0.0
09:37 6.0 4.0 87 1018.7 6.9 E 9.8 0.0 0.0
09:38 6.0 4.0 87 1018.7 9.8 E 9.8 0.0 0.0
09:39 6.0 4.0 87 1018.7 9.2 E 9.8 0.0 0.0
09:40 6.0 4.0 87 1018.7 9.2 E 9.8 0.0 0.0
09:41 6.0 4.0 87 1018.8 9.2 E 9.8 0.0 0.0
09:42 6.0 4.0 87 1018.7 6.0 WNW 9.8 0.0 0.0
09:43 6.0 4.2 88 1018.8 4.5 N 9.8 0.0 0.0
09:44 6.0 4.0 87 1018.7 6.0 E 9.8 0.0 0.0
09:46 6.0 4.0 87 1018.7 6.0 NW 9.8 0.0 0.0
09:47 6.0 4.0 87 1018.7 5.4 S 9.8 0.0 0.0
09:48 6.0 4.0 87 1018.8 4.5 NE 9.2 0.0 0.0
09:49 6.0 4.0 87 1018.7 4.5 E 9.2 0.0 0.0
09:50 6.0 4.0 87 1018.8 6.0 NE 9.2 0.0 0.0
09:51 6.0 4.0 87 1018.6 7.6 NE 9.2 0.0 0.0
09:52 6.0 4.2 88 1018.7 9.2 N 9.2 0.0 0.0
09:53 6.0 4.0 87 1018.8 9.8 SE 9.8 0.0 0.0
09:54 6.0 4.0 87 1018.7 6.9 S 9.8 0.0 0.0
09:55 6.0 4.2 88 1018.9 7.6 SW 9.8 0.0 0.0
09:56 6.1 4.3 88 1018.8 5.4 N 9.8 0.0 0.0
09:57 6.1 4.1 87 1018.8 5.4 NW 10.7 0.0 0.0
09:58 6.1 4.3 88 1018.8 6.9 NW 10.7 0.0 0.0
10:00 6.1 4.3 88 1018.8 9.2 NW 10.7 0.0 0.0
10:01 6.1 4.3 88 1018.8 5.4 SE 10.7 0.0 0.0
10:02 6.1 4.3 88 1018.8 5.4 SE 10.7 0.0 0.0
10:03 6.1 4.1 87 1018.7 11.4 E 11.4 0.0 0.0
10:04 6.1 4.3 88 1018.7 7.6 SE 11.4 0.0 0.0
10:05 6.1 4.1 87 1018.6 4.5 SE 11.4 0.0 0.0
10:06 6.1 4.3 88 1018.7 5.4 N 11.4 0.0 0.0
10:07 6.1 4.3 88 1018.7 6.0 SE 11.4 0.0 0.0
10:08 6.1 4.3 88 1018.6 7.6 S 11.4 0.0 0.0
10:09 6.1 4.3 88 1018.7 4.5 NE 11.4 0.0 0.0
10:10 6.1 4.3 88 1018.6 6.0 SE 11.4 0.0 0.0
10:11 6.1 4.1 87 1018.8 4.5 SSE 11.4 0.0 0.0
10:12 6.1 4.1 87 1018.7 9.8 E 11.4 0.0 0.0
10:13 6.1 4.3 88 1018.7 6.0 S 11.4 0.0 0.0
10:15 6.1 4.3 88 1018.7 9.8 E 9.8 0.0 0.0
10:16 6.1 4.3 88 1018.7 6.9 N 9.8 0.0 0.0
10:17 6.1 4.3 88 1018.7 7.6 E 9.8 0.0 0.0
10:18 6.1 4.3 88 1018.8 9.2 S 9.8 0.0 0.0
10:19 6.1 4.3 88 1018.7 9.2 SE 10.7 0.0 0.0
10:20 6.1 4.3 88 1018.7 6.9 SE 10.7 0.0 0.0
10:21 6.1 4.3 88 1018.8 4.5 SW 10.7 0.0 0.0
10:22 6.2 4.4 88 1018.7 6.0 NW 10.7 0.0 0.0
10:23 6.2 4.2 87 1018.7 6.9 SE 10.7 0.0 0.0
10:24 6.2 4.2 87 1018.7 6.9 SE 10.7 0.0 0.0
10:25 6.2 4.2 87 1018.8 5.4 SE 10.7 0.0 0.0
10:26 6.2 4.4 88 1018.6 6.9 SE 10.7 0.0 0.0
10:27 6.2 4.4 88 1018.8 6.9 N 10.7 0.0 0.0
10:28 6.3 4.3 87 1018.7 9.2 S 10.7 0.0 0.0
10:30 6.3 4.3 87 1018.7 9.2 S 9.8 0.0 0.0
10:31 6.3 4.1 86 1018.6 9.2 SE 9.8 0.0 0.0
10:32 6.3 4.1 86 1018.7 6.0 SE 9.8 0.0 0.0
10:33 6.3 4.3 87 1018.8 4.5 E 9.8 0.0 0.0
10:34 6.3 4.3 87 1018.7 6.9 WNW 9.8 0.0 0.0
10:35 6.3 4.3 87 1018.8 8.3 E 9.8 0.0 0.0
10:36 6.3 4.3 87 1018.7 11.4 E 11.4 0.0 0.0
10:37 6.3 4.3 87 1018.7 7.6 E 11.4 0.0 0.0
10:38 6.3 4.3 87 1018.7 11.4 SE 11.4 0.0 0.0
10:40 6.2 4.2 87 1018.6 8.3 S 11.4 0.0 0.0
10:41 6.2 4.2 87 1018.8 9.2 E 13.0 12.1 1.0
10:42 6.2 4.2 87 1018.8 9.8 ENE 13.0 12.1 1.0
10:43 6.2 4.2 87 1018.8 7.6 SE 13.0 12.1 1.0
10:44 6.2 4.2 87 1018.7 5.4 E 13.0 12.1 1.0
10:46 6.2 4.2 87 1018.7 9.2 E 13.0 0.0 1.0
10:47 6.1 4.1 87 1018.8 9.2 SE 13.0 0.0 1.0
10:48 6.1 4.1 87 1018.6 8.3 E 13.0 0.0 1.0
10:49 6.1 4.1 87 1018.9 10.7 SE 13.0 0.0 1.0
10:50 6.1 4.1 87 1018.7 9.2 SE 13.0 0.0 1.0
10:51 6.1 4.1 87 1018.6 6.9 E 10.7 0.0 1.0
10:52 6.1 4.1 87 1018.6 6.0 S 10.7 0.0 1.0
10:53 6.1 4.1 87 1018.7 6.9 SE 10.7 0.0 1.0
10:54 6.1 4.1 87 1018.6 6.9 WNW 10.7 0.0 1.0
10:55 6.1 4.1 87 1018.5 7.6 N 10.7 0.0 1.0
10:56 6.1 4.1 87 1018.6 4.5 SE 10.7 0.0 0.0
10:57 6.1 4.1 87 1018.5 7.6 S 10.7 0.0 0.0
10:58 6.1 4.1 87 1018.6 7.6 W 10.7 0.0 0.0
10:59 6.1 4.1 87 1018.6 5.4 NE 10.7 0.0 0.0
11:00 6.1 4.1 87 1018.7 12.1 NE 12.1 0.0 0.0
11:02 6.1 4.1 87 1018.6 7.6 SE 12.1 0.0 0.0
11:03 6.1 4.1 87 1018.7 7.6 SE 12.1 0.0 0.0
11:04 6.1 4.1 87 1018.7 7.6 SE 12.1 0.0 0.0
11:05 6.1 4.1 87 1018.5 7.6 SE 12.1 0.0 0.0
11:07 6.1 4.1 87 1018.6 7.6 SE 12.1 0.0 0.0
11:09 6.1 4.1 87 1018.5 7.6 SE 12.1 0.0 0.0
11:10 6.1 4.1 87 1018.5 7.6 SE 12.1 0.0 0.0
11:11 6.1 4.1 87 1018.5 7.6 SE 12.1 0.0 0.0
11:12 6.1 4.1 87 1018.6 7.6 SE 12.1 0.0 0.0
11:13 6.1 4.1 87 1018.6 7.6 SE 12.1 0.0 0.0
11:14 6.1 4.1 87 1018.6 10.7 SE 10.7 0.0 0.0
11:15 6.1 4.1 87 1018.5 8.3 S 10.7 0.0 0.0
11:16 6.1 4.1 87 1018.7 8.3 S 10.7 0.0 0.0
11:17 6.1 4.1 87 1018.6 8.3 S 10.7 0.0 0.0
11:18 6.1 4.1 87 1018.6 8.3 S 10.7 0.0 0.0
11:19 6.1 4.1 87 1018.4 8.3 S 10.7 0.0 0.0
11:20 6.1 4.1 87 1018.5 8.3 S 10.7 0.0 0.0
11:21 6.1 4.3 88 1018.3 5.4 NE 10.7 0.0 0.0
11:22 6.1 4.3 88 1018.5 3.8 SW 10.7 0.0 0.0
11:23 6.1 4.3 88 1018.4 3.8 SW 10.7 0.0 0.0
11:24 6.1 4.3 88 1018.3 3.8 SW 10.7 0.0 0.0
11:25 6.1 4.3 88 1018.3 3.8 SW 8.3 0.0 0.0
11:26 6.1 4.3 88 1018.6 3.8 SW 8.3 0.0 0.0
11:27 6.1 4.3 88 1018.3 3.8 SW 8.3 0.0 0.0
11:28 6.1 4.3 88 1018.3 3.8 SW 8.3 0.0 0.0
11:30 6.1 4.3 88 1018.3 3.8 SW 8.3 0.0 0.0
11:31 6.1 4.3 88 1018.5 3.8 SW 8.3 0.0 0.0
11:32 6.1 4.3 88 1018.3 3.8 SW 8.3 0.0 0.0
11:33 6.1 4.3 88 1018.4 3.8 SW 8.3 0.0 0.0
11:34 6.1 4.3 88 1018.6 6.9 S 8.3 0.0 0.0
11:35 6.1 4.3 88 1018.6 4.5 S 8.3 0.0 0.0
11:36 6.1 4.3 88 1018.6 6.0 N 8.3 0.0 0.0
11:37 6.1 4.3 88 1018.5 6.9 N 8.3 0.0 0.0
11:38 6.1 4.3 88 1018.5 6.9 N 8.3 0.0 0.0
11:39 6.1 4.3 88 1018.5 6.9 N 8.3 0.0 0.0
11:40 6.1 4.3 88 1018.4 6.9 N 8.3 0.0 0.0
11:41 6.1 4.3 88 1018.5 6.9 N 8.3 0.0 0.0
11:42 6.1 4.3 88 1018.5 6.9 N 8.3 0.0 0.0
11:43 6.1 4.3 88 1018.4 6.9 WNW 8.3 0.0 0.0
11:44 6.1 4.3 88 1018.6 8.3 SE 8.3 0.0 0.0
11:45 6.1 4.3 88 1018.6 13.6 SE 13.6 0.0 0.0
11:47 6.1 4.3 88 1018.4 13.6 SE 13.6 0.0 0.0
11:48 6.1 4.3 88 1018.5 13.6 SE 13.6 0.0 0.0
11:49 6.1 4.3 88 1018.6 13.6 SE 13.6 0.0 0.0
11:50 6.1 4.3 88 1018.5 13.6 SE 13.6 0.0 0.0
11:51 6.1 4.3 88 1018.5 13.6 SE 13.6 0.0 0.0
11:52 6.1 4.3 88 1018.3 13.6 SE 13.6 0.0 0.0
11:53 6.1 4.3 88 1018.4 13.6 SE 13.6 0.0 0.0
11:54 6.1 4.3 88 1018.3 13.6 SE 13.6 0.0 0.0
11:55 6.0 4.2 88 1018.3 6.9 E 13.6 0.0 0.0
11:56 6.0 4.2 88 1018.3 6.9 E 13.6 0.0 0.0
11:57 6.0 4.2 88 1018.4 5.4 NW 13.6 0.0 0.0
11:58 6.0 4.2 88 1018.3 11.4 SE 13.6 0.0 0.0
11:59 6.0 4.2 88 1018.3 11.4 SE 13.6 0.0 0.0
12:00 6.0 4.2 88 1018.3 11.4 SE 13.6 0.0 0.0
12:01 6.0 4.2 88 1018.2 8.3 SE 13.6 0.0 0.0
12:03 6.0 4.2 88 1018.3 8.3 SE 11.4 0.0 0.0
12:04 6.0 4.2 88 1018.1 8.3 SE 11.4 0.0 0.0
12:05 6.0 4.2 88 1018.0 8.3 SE 11.4 0.0 0.0
12:06 6.1 4.3 88 1018.2 4.5 S 11.4 0.0 0.0
12:07 6.1 4.3 88 1018.0 8.3 SW 11.4 0.0 0.0
12:08 6.1 4.3 88 1018.0 8.3 SW 11.4 0.0 0.0
12:09 6.1 4.3 88 1018.0 9.2 E 11.4 0.0 0.0
12:10 6.0 4.2 88 1018.2 9.8 E 9.8 0.0 0.0
12:11 6.0 4.2 88 1018.2 9.8 E 9.8 0.0 0.0
12:12 6.0 4.2 88 1017.9 8.3 S 9.8 0.0 0.0
12:13 6.0 4.2 88 1017.9 10.7 E 10.7 0.0 0.0
12:14 6.0 4.2 88 1017.9 9.2 SE 10.7 0.0 0.0
12:15 6.0 4.2 88 1018.0 9.8 E 10.7 0.0 0.0
12:16 6.0 4.2 88 1018.0 9.2 SSE 10.7 0.0 0.0
12:17 6.0 4.2 88 1017.9 9.8 SE 10.7 0.0 0.0
12:18 6.0 4.2 88 1017.8 8.3 SE 10.7 0.0 0.0
12:19 6.0 4.2 88 1017.8 6.0 SSW 10.7 0.0 0.0
12:20 6.0 4.2 88 1017.8 6.0 SSW 10.7 0.0 0.0
12:21 6.0 4.2 88 1017.8 6.0 SSW 10.7 0.0 0.0
12:22 6.0 4.2 88 1018.0 6.0 SSW 10.7 0.0 0.0
12:23 6.0 4.2 88 1018.0 6.0 SSW 9.8 0.0 0.0
12:24 6.0 4.2 88 1017.9 6.0 SSW 9.8 0.0 0.0
12:25 6.0 4.2 88 1017.9 8.3 SE 9.8 0.0 0.0
12:26 6.0 4.2 88 1017.9 10.7 SE 10.7 0.0 0.0
12:27 6.0 4.2 88 1018.0 9.2 SE 10.7 0.0 0.0
12:28 6.0 4.2 88 1017.9 11.4 NE 11.4 0.0 0.0
12:29 6.0 4.2 88 1018.1 13.0 SE 13.0 0.0 0.0
12:30 6.0 4.2 88 1018.0 9.2 SE 13.0 0.0 0.0
12:32 6.0 4.2 88 1018.1 9.2 SE 13.0 0.0 0.0
12:33 6.0 4.2 88 1018.2 9.2 SE 13.0 0.0 0.0
12:34 6.0 4.2 88 1018.0 8.3 E 13.0 0.0 0.0
12:35 6.0 4.2 88 1018.1 6.0 S 13.0 0.0 0.0
12:36 6.0 4.2 88 1018.1 6.9 S 13.0 0.0 0.0
12:37 6.0 4.2 88 1018.2 10.7 SW 13.0 0.0 0.0
12:38 6.0 4.2 88 1017.9 6.0 NE 13.0 0.0 0.0
12:39 6.0 4.2 88 1018.0 6.0 NE 10.7 0.0 0.0
12:40 6.0 4.2 88 1018.0 6.0 NE 10.7 0.0 0.0
12:41 6.0 4.0 87 1018.0 9.8 SE 11.4 0.0 0.0
12:42 6.0 4.0 87 1018.0 10.7 E 11.4 0.0 0.0
12:43 6.0 4.0 87 1018.0 6.0 SE 11.4 0.0 0.0
12:44 6.0 4.0 87 1018.0 6.0 SE 11.4 0.0 0.0
12:45 6.0 4.0 87 1017.9 9.2 SE 11.4 0.0 0.0
12:46 6.0 4.0 87 1018.1 8.3 SE 11.4 0.0 0.0
12:47 6.0 4.0 87 1017.9 8.3 SE 11.4 0.0 0.0
12:48 6.0 4.0 87 1018.0 11.4 SE 11.4 0.0 0.0
12:49 6.0 4.0 87 1018.0 13.6 SE 13.6 0.0 0.0
12:50 6.0 4.0 87 1018.0 9.8 N 13.6 0.0 0.0
12:51 6.0 4.0 87 1018.0 10.7 NNE 13.6 0.0 0.0
12:52 5.9 3.9 87 1018.1 8.3 SE 13.6 0.0 0.0
12:53 5.9 3.9 87 1018.0 7.6 N 13.6 0.0 0.0
12:54 5.9 3.9 87 1017.9 7.6 N 13.6 0.0 0.0
12:55 5.9 3.9 87 1017.9 7.6 N 13.6 0.0 0.0
12:56 5.9 3.9 87 1017.8 7.6 N 13.6 0.0 0.0
12:57 5.9 3.9 87 1017.8 7.6 N 13.6 0.0 0.0
12:58 5.9 3.9 87 1017.8 7.6 N 13.6 0.0 0.0
12:59 5.9 3.9 87 1017.8 4.5 N 13.6 0.0 0.0
13:00 5.9 3.9 87 1017.9 4.5 N 10.7 0.0 0.0
13:01 5.9 3.9 87 1017.8 4.5 N 10.7 0.0 0.0
13:03 5.9 3.9 87 1017.8 4.5 N 7.6 0.0 0.0
13:04 5.9 3.9 87 1017.8 4.5 N 7.6 0.0 0.0
13:05 5.9 3.9 87 1017.9 4.5 N 7.6 0.0 0.0
13:07 5.9 3.9 87 1017.6 4.5 N 7.6 0.0 0.0
13:08 5.9 3.9 87 1017.7 9.2 NW 9.2 0.0 0.0
13:09 5.9 3.9 87 1017.7 6.9 N 9.2 0.0 0.0
13:10 5.9 3.9 87 1017.7 3.8 SE 9.2 0.0 0.0
13:11 5.9 3.9 87 1017.6 6.0 E 9.2 0.0 0.0
13:12 5.9 3.9 87 1017.7 9.2 SE 9.2 0.0 0.0
13:13 5.9 3.9 87 1017.6 8.3 SE 9.2 0.0 0.0
13:14 5.9 3.9 87 1017.6 6.9 E 9.2 0.0 0.0
13:15 5.9 3.9 87 1017.5 6.9 E 9.2 0.0 0.0
13:16 5.9 3.9 87 1017.5 6.9 E 9.2 0.0 0.0
13:17 5.9 3.9 87 1017.6 6.9 SE 9.2 0.0 0.0
13:18 5.9 3.9 87 1017.7 13.6 SE 13.6 0.0 0.0
13:19 5.9 3.9 87 1017.6 6.9 E 13.6 0.0 0.0
13:20 5.9 3.9 87 1017.6 8.3 SE 13.6 0.0 0.0
13:21 5.9 3.9 87 1017.6 10.7 ENE 13.6 0.0 0.0
13:22 5.9 3.9 87 1017.6 10.7 SE 13.6 0.0 0.0
13:23 5.9 3.9 87 1017.7 10.7 SE 13.6 0.0 0.0
13:24 5.9 3.9 87 1017.6 11.4 E 13.6 0.0 0.0
13:25 5.9 3.9 87 1017.7 11.4 E 13.6 0.0 0.0
13:26 5.9 3.9 87 1017.7 9.8 SE 13.6 0.0 0.0
13:27 5.9 3.9 87 1017.9 9.2 E 13.6 0.0 0.0
13:28 5.9 3.9 87 1017.9 8.3 NW 11.4 0.0 0.0
13:29 5.9 3.9 87 1017.8 14.5 SE 14.5 0.0 0.0
13:30 5.9 3.9 87 1017.9 14.5 SE 14.5 0.0 0.0
13:31 5.9 3.9 87 1017.8 11.4 SE 14.5 0.0 0.0
13:32 5.9 3.9 87 1017.8 13.0 SW 14.5 0.0 0.0
13:33 5.9 3.9 87 1017.9 10.7 E 14.5 0.0 0.0
13:34 5.9 3.9 87 1017.9 12.1 SE 14.5 0.0 0.0
13:35 5.9 3.9 87 1017.9 10.7 E 14.5 0.0 0.0
13:36 5.9 3.9 87 1017.9 9.8 E 14.5 0.0 0.0
13:37 5.9 3.9 87 1017.8 9.8 SE 14.5 0.0 0.0
13:38 5.9 3.9 87 1017.8 9.8 SE 14.5 0.0 0.0
13:39 5.9 3.9 87 1017.7 6.9 NNE 14.5 0.0 0.0
13:40 5.9 3.9 87 1017.7 9.2 SE 14.5 0.0 0.0
13:41 5.9 3.9 87 1017.7 13.6 SE 13.6 0.0 0.0
13:42 5.9 3.9 87 1017.7 10.7 SE 13.6 0.0 0.0
13:43 5.9 3.9 87 1017.7 10.7 SSE 13.6 0.0 0.0
13:44 5.9 3.9 87 1017.7 9.8 E 13.6 0.0 0.0
13:45 5.9 3.9 87 1017.8 9.8 E 13.6 0.0 0.0
13:46 5.9 3.9 87 1017.9 9.8 E 13.6 0.0 0.0
13:47 5.9 3.9 87 1017.8 9.8 E 13.6 0.0 0.0
13:48 5.9 3.9 87 1017.9 8.3 SE 13.6 0.0 0.0
13:49 5.9 3.9 87 1017.8 8.3 SE 13.6 0.0 0.0
13:50 5.9 3.9 87 1017.7 8.3 SE 13.6 0.0 0.0
13:51 5.8 3.8 87 1017.7 10.7 SE 13.6 0.0 0.0
13:52 5.8 3.8 87 1017.8 10.7 SE 13.6 0.0 0.0
13:53 5.8 3.8 87 1017.7 13.0 SE 13.0 0.0 0.0
13:54 5.8 3.8 87 1017.7 6.0 N 13.0 0.0 0.0
13:55 5.8 3.8 87 1017.7 9.8 E 13.0 0.0 0.0
13:57 5.8 3.8 87 1017.7 9.2 SE 13.0 0.0 0.0
13:58 5.8 3.8 87 1017.6 6.9 S 13.0 0.0 0.0
13:59 5.8 3.8 87 1017.6 10.7 SE 13.0 0.0 0.0
14:00 5.8 3.8 87 1017.6 9.8 E 13.0 0.0 0.0
14:02 5.8 3.8 87 1017.6 8.3 ESE 13.0 0.0 0.0
14:03 5.8 3.8 87 1017.4 8.3 NE 10.7 0.0 0.0
14:04 5.8 3.8 87 1017.3 9.2 SE 10.7 0.0 0.0
14:05 5.8 3.8 87 1017.6 6.0 NE 10.7 0.0 0.0
14:06 5.8 3.8 87 1017.4 6.9 SE 10.7 0.0 0.0
14:07 5.8 3.8 87 1017.6 5.4 NW 10.7 0.0 0.0
14:08 5.8 3.8 87 1017.4 6.0 SE 10.7 0.0 0.0
14:09 5.8 3.8 87 1017.5 6.0 SE 10.7 0.0 0.0
14:10 5.8 3.8 87 1017.4 7.6 NE 9.8 0.0 0.0
14:11 5.8 3.8 87 1017.3 8.3 SE 9.2 0.0 0.0
14:12 5.8 3.8 87 1017.3 8.3 SE 9.2 0.0 0.0
14:13 5.8 3.8 87 1017.4 8.3 N 9.2 0.0 0.0
14:14 5.8 3.8 87 1017.3 6.0 ESE 9.2 0.0 0.0
14:15 5.8 3.8 87 1017.2 6.0 ESE 8.3 0.0 0.0
14:16 5.8 3.8 87 1017.4 11.4 E 11.4 0.0 0.0
14:17 5.8 3.8 87 1017.3 12.1 W 12.1 0.0 0.0
14:18 5.8 3.8 87 1017.3 11.4 W 12.1 0.0 0.0
14:19 5.8 3.8 87 1017.3 9.2 NW 12.1 0.0 0.0
14:20 5.8 3.8 87 1017.3 9.2 SE 12.1 0.0 0.0
14:21 5.8 3.8 87 1017.3 7.6 SE 12.1 0.0 0.0
14:22 5.8 3.8 87 1017.3 7.6 SE 12.1 0.0 0.0
14:23 5.8 3.8 87 1017.3 9.2 S 12.1 0.0 0.0
14:24 5.8 3.8 87 1017.2 7.6 SE 12.1 0.0 0.0
14:25 5.8 3.8 87 1017.2 4.5 E 12.1 0.0 0.0
14:26 5.8 3.8 87 1017.5 9.8 SE 12.1 0.0 0.0
14:27 5.8 3.8 87 1017.2 5.4 NW 11.4 0.0 0.0
14:28 5.8 3.8 87 1017.2 5.4 NW 11.4 0.0 0.0
14:29 5.8 3.8 87 1017.4 4.5 S 9.8 0.0 0.0
14:30 5.8 3.8 87 1017.3 7.6 NE 9.8 0.0 0.0
14:31 5.8 3.8 87 1017.4 6.0 NE 9.8 0.0 0.0
14:32 5.8 3.8 87 1017.4 4.5 SE 9.8 0.0 0.0
14:33 5.8 3.8 87 1017.4 11.4 SE 11.4 0.0 0.0
14:34 5.8 3.8 87 1017.3 9.8 SE 11.4 0.0 0.0
14:36 5.8 3.8 87 1017.3 6.0 N 11.4 0.0 0.0
14:37 5.8 3.8 87 1017.3 3.8 NE 11.4 0.0 0.0
14:38 5.8 3.8 87 1017.3 5.4 ENE 11.4 0.0 0.0
14:39 5.8 3.8 87 1017.3 6.0 N 11.4 0.0 0.0
14:40 5.8 3.8 87 1017.6 6.0 N 11.4 0.0 0.0
14:41 5.8 3.8 87 1017.4 6.0 N 11.4 0.0 0.0
14:42 5.8 3.8 87 1017.4 7.6 NNE 11.4 0.0 0.0
14:43 5.8 3.8 87 1017.5 6.9 SE 9.8 0.0 0.0
14:44 5.8 3.8 87 1017.6 8.3 SE 9.8 0.0 0.0
14:45 5.8 3.8 87 1017.5 8.3 SE 9.8 0.0 0.0
14:46 5.8 3.8 87 1017.7 8.3 SE 9.8 0.0 0.0
14:47 5.8 3.8 87 1017.7 6.0 E 9.8 0.0 0.0
14:48 5.8 3.8 87 1017.7 7.6 SE 9.8 0.0 0.0
14:49 5.8 3.8 87 1017.9 7.6 SSW 9.8 0.0 0.0
14:50 5.8 3.8 87 1017.8 7.6 SSW 9.8 0.0 0.0
14:51 5.8 3.8 87 1017.8 7.6 SE 9.8 0.0 0.0
14:52 5.8 3.8 87 1017.9 8.3 SE 9.8 0.0 0.0
14:53 5.8 3.8 87 1018.0 11.4 E 11.4 0.0 0.0
14:54 5.8 3.8 87 1017.9 11.4 E 11.4 0.0 0.0
14:55 5.8 3.8 87 1017.8 11.4 E 11.4 0.0 0.0
14:56 5.8 3.8 87 1017.8 11.4 E 11.4 0.0 0.0
14:57 5.8 3.8 87 1017.7 11.4 E 11.4 0.0 0.0
14:58 5.8 3.8 87 1017.8 4.5 SE 11.4 0.0 0.0
14:59 5.8 3.8 87 1017.8 4.5 SE 11.4 0.0 0.0
15:00 5.8 3.8 87 1017.8 4.5 SE 11.4 0.0 0.0
15:01 5.8 3.8 87 1017.8 6.9 E 11.4 0.0 0.0
15:02 5.8 3.8 87 1017.6 5.4 N 11.4 0.0 0.0
15:03 5.8 3.8 87 1017.8 5.4 N 11.4 0.0 0.0
15:04 5.8 3.8 87 1017.6 6.9 SW 11.4 0.0 0.0
15:05 5.8 4.0 88 1017.5 12.1 NE 12.1 0.0 0.0
15:06 5.8 3.8 87 1017.6 6.0 E 12.1 0.0 0.0
15:07 5.9 4.1 88 1017.5 4.5 E 12.1 0.0 0.0
15:08 5.9 4.1 88 1017.5 5.4 N 12.1 0.0 0.0
15:09 5.8 4.0 88 1017.5 4.5 W 12.1 0.0 0.0
15:10 5.8 3.8 87 1017.4 5.4 NW 12.1 0.0 0.0
15:11 5.8 4.0 88 1017.4 6.0 SW 12.1 0.0 0.0
15:12 5.8 4.0 88 1017.4 4.5 SE 12.1 0.0 0.0
15:13 5.8 4.0 88 1017.5 4.5 SE 12.1 0.0 0.0
15:14 5.8 4.0 88 1017.4 6.0 WSW 12.1 0.0 0.0
15:15 5.8 4.0 88 1017.5 3.1 NW 6.0 0.0 0.0
15:16 5.9 4.1 88 1017.5 4.5 NW 6.0 0.0 0.0
15:17 5.8 4.0 88 1017.4 6.0 E 6.0 0.0 0.0
15:18 5.9 4.1 88 1017.4 5.4 NW 6.0 0.0 0.0
15:19 5.9 4.1 88 1017.5 6.9 N 6.9 0.0 0.0
15:20 5.8 4.0 88 1017.6 6.0 SW 6.9 0.0 0.0
15:21 5.8 4.0 88 1017.5 5.4 E 6.9 0.0 0.0
15:22 5.8 4.0 88 1017.4 5.4 E 6.9 0.0 0.0
15:23 5.9 4.1 88 1017.4 5.4 NE 6.9 0.0 0.0
15:24 5.9 4.1 88 1017.6 3.1 S 6.9 0.0 0.0
15:25 5.9 4.1 88 1017.5 5.4 N 8.3 0.0 0.0
15:26 5.9 4.1 88 1017.6 3.8 NE 8.3 0.0 0.0
15:27 5.9 4.1 88 1017.6 8.3 S 8.3 0.0 0.0
15:28 5.9 4.1 88 1017.7 6.0 S 8.3 0.0 0.0
15:29 5.9 4.1 88 1017.7 3.8 SW 8.3 0.0 0.0
15:30 5.9 4.1 88 1017.7 3.1 NE 8.3 0.0 0.0
15:31 5.9 4.1 88 1017.7 3.1 NE 8.3 0.0 0.0
15:32 5.9 4.1 88 1017.6 4.5 NW 8.3 0.0 0.0
15:33 5.9 4.1 88 1017.7 6.9 S 8.3 0.0 0.0
15:34 5.9 4.1 88 1017.7 7.6 NE 8.3 0.0 0.0
15:35 5.9 4.1 88 1017.8 3.8 NE 8.3 0.0 0.0
15:36 5.9 4.1 88 1017.8 3.8 NE 8.3 0.0 0.0
15:37 5.9 4.1 88 1017.6 6.0 NW 8.3 0.0 0.0
15:38 5.9 4.1 88 1017.8 6.9 N 7.6 0.0 0.0
15:39 5.9 4.1 88 1017.8 6.9 N 7.6 0.0 0.0
15:40 5.9 4.2 89 1017.8 8.3 SE 8.3 0.0 0.0
15:41 5.9 4.2 89 1017.6 8.3 E 8.3 0.0 0.0
15:42 5.9 4.2 89 1017.7 3.8 N 8.3 0.0 0.0
15:43 5.9 4.2 89 1017.8 3.8 N 8.3 0.0 0.0
15:44 5.9 4.2 89 1017.6 6.9 NE 8.3 0.0 0.0
15:45 5.9 4.2 89 1017.7 6.9 NE 8.3 0.0 0.0
15:46 5.9 4.2 89 1017.7 4.5 N 8.3 0.0 0.0
15:47 5.9 4.2 89 1017.8 4.5 N 8.3 0.0 0.0
15:48 5.9 4.2 89 1017.6 6.0 S 8.3 0.0 0.0
15:49 5.9 4.2 89 1017.6 5.4 N 8.3 0.0 0.0
15:50 5.9 4.2 89 1017.5 3.8 WNW 8.3 0.0 0.0
15:51 5.9 4.2 89 1017.3 3.1 NW 6.9 0.0 0.0
15:52 5.9 4.2 89 1017.3 3.1 NW 6.9 0.0 0.0
15:53 5.9 4.2 89 1017.4 4.5 N 6.9 0.0 0.0
15:54 5.9 4.2 89 1017.3 4.5 N 6.9 0.0 0.0
15:55 5.9 4.2 89 1017.3 12.1 N 12.1 0.0 0.0
15:56 5.9 4.2 89 1017.4 2.2 NW 12.1 0.0 0.0
15:57 5.9 4.2 89 1017.4 6.0 NE 12.1 0.0 0.0
15:58 5.9 4.2 89 1017.3 6.0 NE 12.1 0.0 0.0
15:59 6.0 4.3 89 1017.3 5.4 S 12.1 0.0 0.0
16:00 6.0 4.3 89 1017.4 5.4 S 12.1 0.0 0.0
16:01 6.0 4.3 89 1017.4 5.4 S 12.1 0.0 0.0
16:02 6.0 4.3 89 1017.4 5.4 S 12.1 0.0 0.0
16:03 6.0 4.3 89 1017.4 5.4 S 12.1 0.0 0.0
16:04 6.0 4.3 89 1017.2 5.4 S 12.1 0.0 0.0
16:05 6.0 4.3 89 1017.3 5.4 S 6.0 0.0 0.0
16:06 6.0 4.3 89 1017.3 5.4 S 6.0 0.0 0.0
16:07 6.0 4.3 89 1017.3 5.4 S 6.0 0.0 0.0
16:08 6.0 4.3 89 1017.3 5.4 S 6.0 0.0 0.0
16:09 6.0 4.5 90 1017.3 3.1 NNE 5.4 0.0 0.0
16:10 6.0 4.5 90 1017.4 3.1 NNE 5.4 0.0 0.0
16:11 6.0 4.5 90 1017.3 3.1 NNE 5.4 0.0 0.0
16:12 6.0 4.5 90 1017.3 3.1 NNE 5.4 0.0 0.0
16:13 6.0 4.5 90 1017.3 4.5 NE 5.4 0.0 0.0
16:14 6.0 4.5 90 1017.2 6.0 SW 6.0 0.0 0.0
16:15 6.0 4.5 90 1017.2 5.4 SW 6.0 0.0 0.0
16:16 6.0 4.5 90 1017.4 3.1 N 6.0 0.0 0.0
16:17 6.0 4.5 90 1017.3 2.2 NW 6.0 0.0 0.0
16:18 6.0 4.5 90 1017.3 5.4 NE 6.0 0.0 0.0
16:19 6.0 4.5 90 1017.2 3.8 NE 6.0 0.0 0.0
16:20 6.0 4.5 90 1017.1 6.9 W 6.9 0.0 0.0
16:21 6.0 4.5 90 1017.2 4.5 NW 6.9 0.0 0.0
16:22 6.1 4.6 90 1017.1 5.4 NW 6.9 0.0 0.0
16:23 6.1 4.6 90 1017.2 3.8 S 6.9 0.0 0.0
16:24 6.1 4.6 90 1017.1 6.9 NW 6.9 0.0 0.0
16:25 6.1 4.6 90 1017.1 6.0 SW 6.9 0.0 0.0
16:26 6.1 4.6 90 1017.0 5.4 SE 6.9 0.0 0.0
16:27 6.1 4.6 90 1017.1 3.1 SE 6.9 0.0 0.0
16:28 6.1 4.7 91 1017.0 6.9 SW 6.9 0.0 0.0
16:29 6.1 4.7 91 1017.0 4.5 NW 6.9 0.0 0.0
16:30 6.1 4.7 91 1017.1 5.4 N 6.9 0.0 0.0
16:31 6.1 4.7 91 1017.0 5.4 E 6.9 0.0 0.0
16:32 6.0 4.6 91 1016.9 5.4 ENE 6.9 0.0 0.0
16:33 6.0 4.6 91 1017.0 5.4 ENE 6.9 0.0 0.0
16:34 6.2 4.8 91 1017.0 5.4 SE 6.9 0.0 0.0
16:35 6.0 4.6 91 1017.1 7.6 SE 7.6 0.0 0.0
16:36 6.0 4.6 91 1017.1 7.6 SE 7.6 0.0 0.0
16:37 6.0 4.6 91 1016.9 7.6 SE 7.6 0.0 0.0
16:38 6.2 4.8 91 1016.9 7.6 NE 7.6 0.0 0.0
16:39 6.2 4.8 91 1017.1 9.2 E 9.2 0.0 0.0
16:40 6.2 4.8 91 1017.0 4.5 SE 9.2 0.0 0.0
16:41 6.2 4.8 91 1017.0 15.9 SE 15.9 0.0 0.0
16:42 6.2 4.8 91 1017.0 5.4 SW 15.9 0.0 0.0
16:43 6.2 4.8 91 1017.0 10.7 SE 15.9 0.0 0.0
16:45 6.3 4.9 91 1017.2 4.5 NE 15.9 0.0 0.0
16:46 6.3 5.1 92 1016.9 11.4 NW 15.9 0.0 0.0
16:47 6.3 4.9 91 1016.9 10.7 SE 15.9 0.0 0.0
16:48 6.3 4.9 91 1017.0 7.6 E 15.9 0.0 0.0
16:49 6.3 4.9 91 1017.0 7.6 E 15.9 0.0 0.0
16:50 6.3 5.1 92 1016.9 6.0 SE 15.9 0.0 0.0
16:51 6.3 5.1 92 1016.9 9.2 N 11.4 0.0 0.0
16:52 6.3 5.1 92 1016.9 9.2 NE 11.4 0.0 0.0
16:53 6.4 5.2 92 1017.0 9.8 SE 11.4 0.0 0.0
16:54 6.4 5.2 92 1016.9 9.2 SE 11.4 0.0 0.0
16:55 6.4 5.2 92 1016.8 9.2 SE 11.4 0.0 0.0
16:56 6.4 5.2 92 1017.0 6.0 N 11.4 0.0 0.0
16:57 6.4 5.2 92 1017.0 10.7 E 10.7 0.0 0.0
16:58 6.4 5.2 92 1017.0 10.7 E 10.7 0.0 0.0
16:59 6.4 5.2 92 1017.3 10.7 E 10.7 0.0 0.0
17:00 6.4 5.2 92 1017.1 10.7 E 10.7 0.0 0.0
17:01 6.4 5.2 92 1017.0 10.7 E 10.7 0.0 0.0
17:02 6.5 5.3 92 1017.0 9.8 SE 10.7 0.0 0.0
17:04 6.5 5.3 92 1016.9 7.6 SE 10.7 0.0 0.0
17:05 6.5 5.3 92 1016.9 5.4 SE 10.7 0.0 0.0
17:06 6.5 5.5 93 1017.0 7.6 SE 10.7 0.0 0.0
17:07 6.5 5.3 92 1017.1 6.9 WNW 10.7 0.0 0.0
17:08 6.5 5.5 93 1016.9 8.3 N 10.7 0.0 0.0
17:10 6.5 5.5 93 1016.8 8.3 SW 10.7 0.0 0.0
17:12 6.6 5.6 93 1016.7 6.0 SE 9.8 0.0 0.0
17:14 6.6 5.6 93 1016.6 10.7 SE 10.7 0.0 0.0
17:15 6.6 5.6 93 1016.7 8.3 E 10.7 0.0 0.0
17:16 6.6 5.6 93 1016.8 5.4 SE 10.7 0.0 0.0
17:17 6.6 5.6 93 1016.9 5.4 E 10.7 0.0 0.0
17:18 6.6 5.6 93 1016.8 8.3 SE 10.7 0.0 0.0
17:19 6.6 5.6 93 1016.8 10.7 SE 10.7 0.0 0.0
17:20 6.6 5.6 93 1016.8 9.8 SE 10.7 0.0 0.0
17:21 6.6 5.6 93 1017.0 4.5 NE 10.7 0.0 0.0
17:22 6.6 5.6 93 1016.9 6.9 N 10.7 0.0 0.0
17:23 6.6 5.6 93 1016.8 6.9 N 10.7 0.0 0.0
17:24 6.6 5.6 93 1016.8 7.6 NE 10.7 0.0 0.0
17:25 6.7 5.6 93 1016.8 8.3 N 11.4 0.0 0.0
17:26 6.7 5.6 93 1016.8 6.9 E 11.4 0.0 0.0
17:27 6.7 5.6 93 1016.9 9.2 S 11.4 0.0 0.0
17:28 6.7 5.6 93 1016.8 4.5 N 11.4 0.0 0.0
17:29 6.7 5.6 93 1016.8 9.8 SE 11.4 0.0 0.0
17:30 6.7 5.6 93 1016.7 6.9 NW 11.4 0.0 0.0
17:31 6.7 5.6 93 1016.8 11.4 E 11.4 0.0 0.0
17:32 6.7 5.8 94 1016.8 13.0 SE 13.0 0.0 0.0
17:34 6.8 5.9 94 1016.6 6.0 SW 13.0 0.0 0.0
17:35 6.8 5.9 94 1016.6 5.4 NW 13.0 0.0 0.0
17:36 6.8 5.9 94 1016.7 5.4 SW 13.0 0.0 0.0
17:37 6.8 5.9 94 1016.5 5.4 SW 13.0 0.0 0.0
17:38 6.8 5.9 94 1016.7 9.2 NE 13.0 0.0 0.0
17:39 6.8 5.9 94 1016.7 14.5 N 14.5 0.0 0.0
17:40 6.8 5.9 94 1016.7 6.9 NW 14.5 0.0 0.0
17:42 6.8 5.9 94 1016.8 7.6 E 14.5 0.0 0.0
17:43 6.8 5.9 94 1016.8 9.2 E 14.5 0.0 0.0
17:44 6.8 5.9 94 1016.7 6.9 SE 14.5 0.0 0.0
17:45 6.8 5.9 94 1016.7 5.4 W 14.5 0.0 0.0
17:46 6.9 6.0 94 1016.7 11.4 SE 14.5 0.0 0.0
17:47 6.9 6.0 94 1016.7 10.7 S 14.5 0.0 0.0
17:48 6.9 6.0 94 1016.6 10.7 SE 14.5 0.0 0.0
17:49 6.9 6.0 94 1016.7 9.8 NE 14.5 0.0 0.0
17:50 6.9 6.0 94 1016.6 9.8 NE 11.4 0.0 0.0
17:51 6.9 6.0 94 1016.9 9.8 SE 11.4 0.0 0.0
17:52 6.9 6.2 95 1016.7 6.9 NE 11.4 0.0 0.0
17:53 6.9 6.0 94 1016.7 8.3 SE 15.2 0.0 0.0
17:54 6.9 6.0 94 1016.8 9.2 NW 15.2 0.0 0.0
17:55 6.9 6.0 94 1016.8 8.3 SSE 15.2 0.0 0.0
17:56 6.9 6.0 94 1016.7 11.4 SE 15.2 0.0 0.0
17:57 6.9 6.2 95 1016.7 8.3 E 15.2 0.0 0.0
17:58 7.0 6.3 95 1016.7 9.2 SE 15.2 0.0 0.0
17:59 7.0 6.3 95 1016.8 9.2 E 15.2 0.0 0.0
18:00 7.0 6.3 95 1016.6 7.6 NE 15.2 0.0 0.0
18:01 7.0 6.3 95 1016.6 10.7 ENE 15.2 0.0 0.0
18:02 7.0 6.3 95 1016.6 10.7 ENE 15.2 0.0 0.0
18:03 7.0 6.3 95 1016.8 10.7 ENE 11.4 0.0 0.0
18:04 7.0 6.3 95 1016.7 9.8 NE 11.4 0.0 0.0
18:05 7.0 6.3 95 1016.7 9.2 SE 12.1 0.0 0.0
18:06 7.0 6.3 95 1016.7 8.3 SE 12.1 0.0 0.0
18:07 7.0 6.3 95 1016.8 13.6 SE 13.6 0.0 0.0
18:08 7.0 6.3 95 1016.6 5.4 SE 13.6 0.0 0.0
18:09 7.0 6.3 95 1016.7 11.4 SE 13.6 0.0 0.0
18:10 7.0 6.3 95 1016.5 11.4 SE 13.6 0.0 0.0
18:12 7.1 6.4 95 1016.7 8.3 E 13.6 0.0 0.0
18:13 7.2 6.5 95 1016.8 12.1 E 13.6 0.0 0.0
18:14 7.1 6.4 95 1016.6 6.9 E 13.6 0.0 0.0
18:15 7.1 6.4 95 1016.6 6.9 SE 13.6 0.0 0.0
18:16 7.1 6.4 95 1016.5 6.9 SE 13.6 0.0 0.0
18:17 7.1 6.4 95 1016.6 8.3 SE 12.1 0.0 0.0
18:18 7.2 6.6 96 1016.6 5.4 SE 12.1 0.0 0.0
18:19 7.2 6.6 96 1016.5 12.1 SE 12.1 0.0 0.0
18:20 7.2 6.6 96 1016.6 8.3 SE 12.1 0.0 0.0
18:21 7.2 6.6 96 1016.7 8.3 SE 12.1 0.0 0.0
18:22 7.2 6.6 96 1016.8 10.7 SE 12.1 0.0 0.0
18:23 7.2 6.6 96 1016.8 9.2 E 12.1 0.0 0.0
18:24 7.2 6.6 96 1016.8 9.2 E 12.1 0.0 0.0
18:25 7.2 6.6 96 1016.7 11.4 SE 12.1 0.0 0.0
18:26 7.2 6.6 96 1016.9 11.4 SE 12.1 0.0 0.0
18:27 7.2 6.6 96 1016.8 9.2 SE 12.1 0.0 0.0
18:28 7.3 6.7 96 1016.9 11.4 E 12.1 0.0 0.0
18:29 7.3 6.7 96 1016.7 9.2 SE 12.1 0.0 0.0
18:30 7.3 6.7 96 1016.9 6.0 SE 11.4 0.0 0.0
18:31 7.3 6.7 96 1016.8 6.0 SE 11.4 0.0 0.0
18:32 7.3 6.7 96 1016.7 6.0 SE 11.4 0.0 0.0
18:33 7.3 6.7 96 1016.8 10.7 SE 11.4 0.0 0.0
18:34 7.3 6.7 96 1016.8 7.6 SW 11.4 0.0 0.0
18:35 7.3 6.7 96 1016.8 11.4 E 11.4 0.0 0.0
18:36 7.3 6.7 96 1016.8 11.4 SE 11.4 0.0 0.0
18:37 7.4 6.8 96 1016.8 13.0 SE 13.0 0.0 0.0
18:38 7.4 6.8 96 1016.7 9.8 N 13.0 0.0 0.0
18:39 7.4 6.8 96 1016.6 10.7 S 13.0 0.0 0.0
18:40 7.4 6.8 96 1016.7 11.4 E 13.0 0.0 0.0
18:41 7.4 6.8 96 1016.6 8.3 SE 13.6 0.0 0.0
18:42 7.4 7.0 97 1016.7 9.8 S 13.6 0.0 0.0
18:43 7.4 6.8 96 1016.7 12.1 SE 13.6 0.0 0.0
18:44 7.4 6.8 96 1016.7 9.2 SE 13.6 0.0 0.0
18:46 7.4 7.0 97 1016.6 9.2 N 13.6 0.0 0.0
18:47 7.5 7.1 97 1016.6 6.9 NE 13.6 0.0 0.0
18:48 7.5 7.1 97 1016.6 6.9 SE 13.6 0.0 0.0
18:49 7.4 7.0 97 1016.6 14.5 S 14.5 0.0 0.0
18:50 7.5 7.1 97 1016.5 6.9 SE 14.5 0.0 0.0
18:51 7.5 7.1 97 1016.5 13.6 E 14.5 0.0 0.0
18:52 7.5 7.1 97 1016.5 12.1 SE 14.5 0.0 0.0
18:53 7.5 7.1 97 1016.5 9.8 SE 14.5 0.0 0.0
18:54 7.5 7.1 97 1016.5 8.3 NE 14.5 0.0 0.0
18:55 7.5 7.1 97 1016.6 9.2 SE 14.5 0.0 0.0
18:56 7.5 7.1 97 1016.3 9.2 SE 14.5 0.0 0.0
18:57 7.5 7.1 97 1016.5 9.2 SE 14.5 0.0 0.0
18:58 7.5 7.1 97 1016.5 8.3 S 14.5 0.0 0.0
18:59 7.5 7.1 97 1016.6 10.7 SE 14.5 0.0 0.0
19:00 7.5 7.1 97 1016.6 10.7 N 14.5 0.0 0.0
19:01 7.5 7.1 97 1016.5 9.8 NE 13.6 0.0 0.0
19:02 7.5 7.1 97 1016.5 12.1 SE 12.1 0.0 0.0
19:03 7.5 7.1 97 1016.6 12.1 SE 12.1 0.0 0.0
19:04 7.5 7.1 97 1016.5 8.3 S 12.1 0.0 0.0
19:05 7.5 7.1 97 1016.7 9.2 E 12.1 0.0 0.0
19:06 7.5 7.1 97 1016.6 9.8 ESE 12.1 0.0 0.0
19:07 7.5 7.1 97 1016.6 9.2 E 12.1 0.0 0.0
19:08 7.5 7.1 97 1016.6 13.0 E 13.6 0.0 0.0
19:09 7.6 7.2 97 1016.6 9.8 SE 13.6 0.0 0.0
19:10 7.5 7.1 97 1016.5 9.8 E 13.6 0.0 0.0
19:11 7.5 7.1 97 1016.5 9.8 S 13.6 0.0 0.0
19:12 7.5 7.1 97 1016.4 12.1 S 15.2 0.0 0.0
19:13 7.5 7.1 97 1016.4 12.1 N 15.2 0.0 0.0
19:14 7.5 7.1 97 1016.4 9.2 SW 15.2 0.0 0.0
19:15 7.5 7.1 97 1016.4 9.2 S 15.2 0.0 0.0
19:16 7.6 7.3 98 1016.2 9.2 NE 15.2 0.0 0.0
19:17 7.6 7.2 97 1016.3 9.8 SE 15.2 0.0 0.0
19:18 7.6 7.2 97 1016.4 8.3 SE 15.2 0.0 0.0
19:19 7.6 7.2 97 1016.2 12.1 SE 15.2 0.0 0.0
19:20 7.6 7.3 98 1016.3 13.6 S 15.2 0.0 0.0
19:21 7.6 7.3 98 1016.5 10.7 SE 15.2 0.0 0.0
19:22 7.6 7.2 97 1016.3 18.3 SE 18.3 0.8 0.1
19:23 7.6 7.3 98 1016.3 10.7 SE 18.3 0.8 0.1
19:24 7.6 7.3 98 1016.3 10.7 E 18.3 0.8 0.1
19:26 7.6 7.3 98 1016.2 14.5 NW 18.3 0.8 0.1
19:27 7.6 7.3 98 1016.1 12.1 SW 18.3 0.0 0.1
19:28 7.6 7.3 98 1016.2 12.1 SE 18.3 0.0 0.1
19:29 7.4 7.1 98 1016.3 10.7 S 18.3 0.0 0.1
19:30 7.6 7.3 98 1016.1 10.7 SE 18.3 0.0 0.1
19:31 7.6 7.3 98 1016.3 10.7 SE 18.3 0.0 0.1
19:32 7.6 7.3 98 1016.1 13.6 S 15.2 0.0 0.1
19:33 7.6 7.3 98 1016.1 9.8 S 15.2 0.0 0.1
19:34 7.6 7.3 98 1016.2 13.0 E 15.2 0.0 0.1
19:35 7.6 7.3 98 1016.1 12.1 SSE 15.2 0.0 0.1
19:36 7.6 7.3 98 1016.1 14.5 SE 15.2 0.0 0.1
19:37 7.7 7.4 98 1016.1 12.1 SE 15.2 0.0 0.1
19:38 7.6 7.3 98 1016.1 13.6 SE 15.2 0.0 0.1
19:39 7.6 7.3 98 1016.0 16.8 NE 16.8 0.0 0.1
19:40 7.6 7.3 98 1016.0 10.7 S 16.8 0.0 0.1
19:41 7.6 7.3 98 1016.1 12.1 ESE 16.8 0.0 0.1
19:42 7.7 7.4 98 1016.0 13.6 ESE 16.8 0.0 0.1
19:43 7.6 7.3 98 1016.0 11.4 E 16.8 0.0 0.1
19:44 7.6 7.3 98 1016.0 6.0 W 16.8 0.0 0.1
19:45 7.7 7.4 98 1016.0 9.2 SE 16.8 0.0 0.1
19:46 7.6 7.3 98 1016.0 8.3 SE 16.8 0.0 0.1
19:47 7.7 7.4 98 1015.8 8.3 S 16.8 0.0 0.1
19:48 7.7 7.4 98 1016.0 11.4 NW 16.8 0.0 0.1
19:49 7.7 7.4 98 1015.9 10.7 NW 13.6 0.0 0.1
19:51 7.7 7.4 98 1015.8 9.8 SE 13.6 0.0 0.1
19:52 7.7 7.4 98 1016.0 11.4 NNW 13.0 0.0 0.1
19:53 7.7 7.4 98 1015.9 8.3 S 13.0 0.0 0.1
19:54 7.7 7.4 98 1015.8 9.8 SE 13.0 0.0 0.1
19:55 7.7 7.4 98 1015.9 12.1 N 13.0 0.0 0.1
19:56 7.7 7.4 98 1015.8 9.2 S 13.0 0.0 0.1
19:57 7.7 7.4 98 1015.9 13.0 SE 13.0 0.0 0.1
19:58 7.7 7.6 99 1015.7 11.4 E 13.0 0.0 0.1
19:59 7.7 7.4 98 1015.8 8.3 S 13.0 0.0 0.1
20:00 7.7 7.4 98 1015.8 8.3 S 13.0 0.0 0.1
20:01 7.8 7.7 99 1015.8 11.4 NE 13.0 0.0 0.1
20:02 7.8 7.7 99 1015.8 12.1 SE 13.0 0.0 0.1
20:03 7.8 7.7 99 1015.9 12.1 SE 13.0 0.0 0.1
20:04 7.8 7.7 99 1015.8 12.1 SE 13.0 0.0 0.1
20:05 7.8 7.7 99 1015.8 12.1 SE 13.0 0.0 0.1
20:06 7.8 7.7 99 1015.7 12.1 SE 13.0 0.0 0.1
20:07 7.8 7.7 99 1015.7 12.1 SE 13.0 0.0 0.1
20:08 7.8 7.7 99 1015.6 6.9 SE 12.1 0.0 0.1
20:09 7.8 7.7 99 1015.5 9.2 E 12.1 0.0 0.1
20:10 7.8 7.7 99 1015.5 10.7 SE 12.1 0.0 0.1
20:11 7.8 7.7 99 1015.6 8.3 N 12.1 0.0 0.1
20:12 7.8 7.7 99 1015.5 10.7 SE 12.1 0.0 0.1
20:13 7.8 7.7 99 1015.5 8.3 E 12.1 0.0 0.1
20:15 7.8 7.7 99 1015.6 9.8 SE 13.0 0.0 0.1
20:16 7.8 7.7 99 1015.5 13.0 SE 13.0 0.0 0.1
20:17 7.9 7.8 99 1015.4 14.5 N 14.5 0.0 0.1
20:18 7.9 7.8 99 1015.4 8.3 SE 14.5 0.0 0.1
20:19 7.9 7.8 99 1015.3 9.8 SW 14.5 0.0 0.1
20:20 7.9 7.8 99 1015.4 7.6 E 14.5 0.0 0.1
20:21 7.9 7.8 99 1015.3 12.1 NE 14.5 0.0 0.1
20:22 7.9 7.8 99 1015.5 9.2 S 14.5 0.0 0.1
20:23 7.9 7.8 99 1015.3 9.2 SW 14.5 0.0 0.1
20:24 7.9 7.8 99 1015.3 12.1 NE 14.5 0.0 0.1
20:25 7.9 7.8 99 1015.3 11.4 SE 14.5 0.0 0.1
20:26 7.9 7.8 99 1015.3 11.4 E 14.5 0.0 0.1
20:27 7.9 7.8 99 1015.1 15.9 SE 15.9 0.0 0.1
20:28 7.9 7.8 99 1015.3 14.5 SE 16.8 0.0 0.1
20:29 7.9 7.8 99 1015.3 9.8 SE 16.8 0.0 0.1
20:30 8.0 7.9 99 1015.2 6.9 SE 16.8 0.0 0.1
20:31 8.0 7.9 99 1015.2 9.8 S 16.8 0.0 0.1
20:32 8.0 7.9 99 1015.2 9.2 SSW 16.8 0.0 0.1
20:33 8.0 7.9 99 1015.2 11.4 SE 16.8 0.0 0.1
20:34 8.0 7.9 99 1015.1 8.3 S 16.8 0.0 0.1
20:35 8.0 7.9 99 1015.2 8.3 NNW 16.8 0.0 0.1
20:36 8.0 7.9 99 1015.2 12.1 S 16.8 0.0 0.1
20:37 8.0 7.9 99 1015.3 12.1 NE 16.8 0.0 0.1
20:38 8.0 7.9 99 1015.1 13.0 SE 13.0 0.0 0.1
20:39 8.0 7.9 99 1015.2 11.4 E 13.0 0.0 0.1
20:41 8.0 7.9 99 1015.1 14.5 S 18.3 0.0 0.1
20:42 8.0 7.9 99 1015.1 11.4 NE 18.3 0.0 0.1
20:43 8.0 7.9 99 1015.1 6.9 NE 18.3 0.0 0.1
20:44 8.0 7.9 99 1015.1 9.2 S 18.3 0.0 0.1
20:45 8.0 7.9 99 1015.1 10.7 NW 18.3 0.0 0.1
20:46 8.0 7.9 99 1015.2 19.7 SE 19.7 0.0 0.1
20:47 8.1 8.0 99 1015.2 17.4 SE 19.7 0.0 0.1
20:48 8.1 8.0 99 1015.2 15.9 SE 19.7 0.0 0.1
20:49 8.1 8.0 99 1015.0 13.0 SE 19.7 0.0 0.1
20:50 8.1 8.0 99 1015.0 12.1 SE 19.7 0.0 0.1
20:51 8.1 8.0 99 1015.1 11.4 SE 19.7 0.0 0.1
20:52 8.1 8.0 99 1015.0 9.2 SE 19.7 0.0 0.1
20:53 8.1 8.0 99 1015.0 11.4 S 19.7 0.0 0.1
20:54 8.1 8.0 99 1015.1 11.4 NE 19.7 0.0 0.1
20:55 8.1 8.0 99 1015.1 11.4 SE 19.7 0.0 0.1
20:56 8.1 8.0 99 1015.0 14.5 SE 19.7 0.0 0.1
20:57 8.1 8.0 99 1015.0 11.4 S 17.4 0.0 0.1
20:58 8.1 8.0 99 1015.1 10.7 SE 15.9 0.0 0.1
20:59 8.1 8.0 99 1015.0 17.4 E 17.4 0.0 0.1
21:00 8.1 8.0 99 1015.0 17.4 E 17.4 0.0 0.1
21:01 8.1 8.0 99 1015.1 13.6 E 17.4 0.8 0.1
21:02 8.1 8.0 99 1015.1 12.1 SE 17.4 0.8 0.1
21:03 8.1 8.0 99 1015.1 12.1 NE 17.4 0.8 0.1
21:04 8.1 8.0 99 1015.0 10.7 SE 17.4 0.8 0.1
21:05 8.1 8.0 99 1015.1 11.4 E 17.4 0.8 0.1
21:06 8.1 8.0 99 1015.0 13.0 SE 17.4 0.0 0.1
21:07 8.1 8.0 99 1015.1 10.7 E 17.4 0.0 0.1
21:08 8.1 8.0 99 1015.1 11.4 SE 17.4 0.0 0.1
21:09 8.1 8.0 99 1015.1 9.2 SE 17.4 0.0 0.1
21:11 8.1 8.0 99 1015.1 10.7 S 13.6 0.0 0.1
21:12 8.1 8.0 99 1015.0 15.9 SE 15.9 0.0 0.2
21:13 8.1 8.0 99 1015.1 13.6 SE 15.9 0.8 0.2
21:14 8.1 8.0 99 1015.0 14.5 SW 15.9 0.8 0.2
21:15 8.2 8.1 99 1015.1 12.1 E 15.9 0.8 0.2
21:16 8.1 8.0 99 1014.9 15.9 SE 15.9 0.8 0.2
21:17 8.1 8.0 99 1015.1 13.0 NE 15.9 0.8 0.2
21:18 8.1 8.0 99 1014.9 11.4 S 15.9 0.8 0.3
21:19 8.1 8.0 99 1015.0 11.4 E 15.9 0.8 0.3
21:20 8.1 8.0 99 1015.0 11.4 E 15.9 0.8 0.3
21:21 8.2 8.1 99 1015.0 8.3 E 15.9 0.8 0.3
21:22 8.1 8.0 99 1014.9 9.2 SE 15.9 0.8 0.3
21:23 8.1 8.0 99 1014.8 13.0 SE 15.9 0.0 0.3
21:24 8.2 8.1 99 1014.9 13.6 SE 15.9 0.0 0.3
21:25 8.1 8.0 99 1014.9 10.7 SE 15.9 0.0 0.3
21:26 8.1 8.0 99 1014.9 8.3 ESE 15.9 0.0 0.3
21:27 8.1 8.0 99 1014.9 11.4 SSE 15.9 0.8 0.3
21:28 8.2 8.1 99 1014.8 7.6 N 15.9 0.8 0.3
21:29 8.2 8.1 99 1014.8 9.8 SE 15.9 0.8 0.3
21:30 8.2 8.1 99 1014.8 11.4 SE 15.9 0.8 0.3
21:31 8.2 8.1 99 1014.6 14.5 SE 15.9 0.8 0.3
21:32 8.2 8.1 99 1014.6 9.2 E 15.9 0.0 0.4
21:33 8.2 8.1 99 1014.7 12.1 S 15.9 0.8 0.4
21:34 8.2 8.1 99 1014.4 9.2 SE 15.9 0.8 0.4
21:37 8.2 8.1 99 1014.5 13.6 E 15.9 0.8 0.4
21:38 8.2 8.1 99 1014.6 13.6 S 15.9 0.0 0.4
21:39 8.2 8.1 99 1014.6 13.6 SE 15.9 0.0 0.4
21:40 8.2 8.1 99 1014.6 9.2 SE 15.9 0.0 0.4
21:41 8.2 8.1 99 1014.4 12.1 S 15.9 0.8 0.4
21:42 8.2 8.1 99 1014.5 10.7 E 15.9 0.8 0.4
21:43 8.2 8.1 99 1014.5 10.7 SE 15.9 0.8 0.4
21:44 8.2 8.1 99 1014.4 11.4 E 13.6 0.8 0.4
21:45 8.2 8.1 99 1014.5 9.8 SE 13.6 0.8 0.4
21:46 8.2 8.1 99 1014.4 9.8 SE 13.6 0.0 0.4
21:47 8.2 8.1 99 1014.4 11.4 S 13.6 0.8 0.5
21:48 8.2 8.1 99 1014.3 9.8 SE 13.6 0.8 0.5
21:49 8.2 8.1 99 1014.4 8.3 SE 13.6 0.8 0.5
21:50 8.2 8.1 99 1014.5 14.5 SE 14.5 0.8 0.5
21:51 8.2 8.1 99 1014.3 10.7 SE 15.2 0.8 0.5
21:52 8.2 8.1 99 1014.2 11.4 N 15.2 0.0 0.5
21:53 8.2 8.1 99 1014.4 10.7 SW 15.2 0.0 0.5
21:54 8.2 8.1 99 1014.3 9.8 SE 15.2 0.0 0.5
21:55 8.2 8.1 99 1014.3 12.1 SE 15.2 0.0 0.5
21:56 8.2 8.1 99 1014.3 9.2 NW 15.2 0.0 0.5
21:57 8.2 8.1 99 1014.2 9.8 E 15.2 0.0 0.5
21:58 8.2 8.1 99 1014.3 13.0 E 15.2 0.8 0.6
21:59 8.2 8.1 99 1014.3 15.9 SE 15.9 0.8 0.6
22:00 8.2 8.1 99 1014.3 12.1 SE 15.9 0.8 0.6
22:02 8.2 8.1 99 1014.2 13.0 S 15.9 0.8 0.6
22:03 8.2 8.1 99 1014.3 9.8 S 15.9 0.0 0.6
22:04 8.2 8.1 99 1014.4 13.6 NE 15.9 0.0 0.6
22:05 8.2 8.1 99 1014.2 13.0 ENE 15.9 0.0 0.6
22:06 8.3 8.2 99 1014.1 9.8 SE 15.9 0.0 0.6
22:07 8.2 8.1 99 1014.2 6.9 ENE 15.9 0.0 0.6
22:08 8.2 8.1 99 1014.1 12.1 E 15.9 0.0 0.6
22:10 8.2 8.1 99 1014.1 11.4 SE 13.6 0.0 0.6
22:11 8.3 8.2 99 1014.1 10.7 N 13.6 0.8 0.6
22:12 8.2 8.1 99 1014.3 6.9 S 13.6 0.8 0.6
22:13 8.3 8.2 99 1014.0 13.6 SE 13.6 0.8 0.6
22:14 8.2 8.1 99 1014.0 10.7 NNW 13.6 0.8 0.6
22:15 8.3 8.2 99 1014.0 11.4 SE 13.6 0.8 0.6
22:16 8.2 8.1 99 1014.1 13.6 SE 13.6 0.0 0.6
22:17 8.3 8.2 99 1014.0 12.1 SE 13.6 0.0 0.6
22:18 8.3 8.2 99 1014.0 12.1 NE 13.6 0.0 0.6
22:19 8.3 8.2 99 1014.0 11.4 E 13.6 0.0 0.6
22:20 8.3 8.2 99 1013.8 13.6 S 13.6 0.0 0.6
22:21 8.3 8.2 99 1013.7 12.1 SE 13.6 0.0 0.6
22:22 8.3 8.2 99 1013.9 13.0 SE 13.6 0.0 0.6
22:23 8.3 8.2 99 1013.8 9.8 S 13.6 0.0 0.6
22:24 8.3 8.2 99 1013.9 10.7 SE 13.6 0.0 0.6
22:25 8.3 8.2 99 1013.8 13.0 NW 13.6 0.0 0.6
22:26 8.3 8.2 99 1014.0 13.0 NE 13.6 0.0 0.6
22:27 8.3 8.2 99 1013.8 10.7 E 13.6 0.0 0.6
22:28 8.3 8.2 99 1013.6 9.2 NE 13.6 0.8 0.7
22:29 8.3 8.2 99 1013.7 11.4 NE 13.6 0.8 0.7
22:30 8.3 8.2 99 1013.6 15.2 E 15.2 0.8 0.7
22:31 8.3 8.2 99 1013.5 12.1 E 15.2 0.8 0.7
22:32 8.3 8.2 99 1013.5 15.9 E 15.9 0.8 0.7
22:33 8.3 8.2 99 1013.4 11.4 E 15.9 0.0 0.8
22:34 8.3 8.2 99 1013.4 16.8 NE 16.8 0.8 0.8
22:35 8.3 8.2 99 1013.4 14.5 S 16.8 0.8 0.8
22:36 8.3 8.2 99 1013.5 13.0 SE 16.8 0.8 0.8
22:37 8.3 8.2 99 1013.4 14.5 S 16.8 0.8 0.8
22:38 8.3 8.2 99 1013.4 17.4 SE 17.4 0.8 0.8
22:39 8.3 8.2 99 1013.5 10.7 SE 17.4 0.0 0.8
22:41 8.3 8.2 99 1013.5 9.2 E 17.4 0.0 0.8
22:42 8.3 8.2 99 1013.6 13.6 E 17.4 0.0 0.8
22:43 8.3 8.2 99 1013.6 9.8 E 17.4 0.0 0.8
22:44 8.3 8.2 99 1013.5 13.0 SE 17.4 0.0 0.8
22:45 8.3 8.2 99 1013.4 13.6 SE 17.4 0.8 0.8
22:46 8.3 8.2 99 1013.4 10.7 S 17.4 0.8 0.8
22:47 8.3 8.2 99 1013.6 13.6 E 17.4 0.8 0.8
22:48 8.3 8.2 99 1013.4 16.8 SE 17.4 0.8 0.8
22:49 8.3 8.2 99 1013.4 10.7 SE 16.8 0.8 0.8
22:50 8.3 8.2 99 1013.5 12.1 SE 16.8 0.0 0.8
22:51 8.3 8.2 99 1013.3 13.0 S 16.8 0.0 0.8
22:52 8.3 8.2 99 1013.5 11.4 SW 16.8 0.0 0.8
22:53 8.3 8.2 99 1013.5 13.0 SE 16.8 0.0 0.8
22:54 8.3 8.2 99 1013.5 10.7 NE 16.8 0.0 0.8
22:55 8.3 8.2 99 1013.4 13.6 SE 16.8 0.0 0.8
22:56 8.3 8.2 99 1013.3 16.8 SE 16.8 0.0 0.9
22:57 8.3 8.2 99 1013.2 15.9 SE 16.8 0.8 0.9
22:58 8.3 8.2 99 1013.4 13.6 SE 16.8 0.8 0.9
22:59 8.3 8.2 99 1013.3 19.7 SE 19.7 0.8 0.9
23:00 8.3 8.2 99 1013.2 16.8 SE 19.7 0.8 0.9
23:01 8.4 8.3 99 1013.1 8.3 E 19.7 0.8 0.9
23:02 8.4 8.3 99 1013.1 12.1 SE 19.7 0.0 0.9
23:03 8.3 8.2 99 1013.3 13.6 N 19.7 0.0 0.9
23:04 8.3 8.2 99 1013.3 10.7 SE 19.7 0.0 0.9
23:05 8.4 8.3 99 1013.4 13.0 SW 19.7 0.8 0.9
23:06 8.4 8.3 99 1013.4 14.5 SE 19.7 0.8 1.0
23:08 8.4 8.3 99 1013.2 9.8 ESE 19.7 1.5 1.1
23:09 8.3 8.2 99 1013.3 12.1 NW 16.8 2.3 1.1
23:10 8.3 8.2 99 1013.2 11.4 E 14.5 1.5 1.1
23:11 8.4 8.3 99 1013.2 13.0 E 14.5 2.3 1.1
23:13 8.3 8.2 99 1013.4 9.8 ESE 14.5 1.5 1.1
23:14 8.3 8.2 99 1013.3 13.0 SE 14.5 0.8 1.1
23:15 8.3 8.2 99 1013.3 13.0 SE 14.5 0.8 1.1
23:16 8.3 8.2 99 1013.4 19.0 SE 19.0 0.0 1.1
23:17 8.3 8.2 99 1013.2 15.9 SE 19.0 0.0 1.1
23:18 8.4 8.3 99 1013.3 13.6 SE 19.0 0.8 1.2
23:19 8.4 8.3 99 1013.2 13.6 SE 19.0 0.8 1.2
23:20 8.4 8.3 99 1013.2 15.2 E 19.0 0.8 1.3
23:21 8.4 8.3 99 1013.1 14.5 SSE 19.0 1.5 1.3
23:22 8.4 8.3 99 1013.0 9.2 SE 19.0 1.5 1.3
23:23 8.4 8.3 99 1013.3 14.5 SE 19.0 0.8 1.3
23:24 8.4 8.3 99 1013.1 10.7 SE 19.0 0.8 1.3
23:26 8.4 8.3 99 1013.1 19.0 SE 19.0 0.8 1.4
23:27 8.4 8.3 99 1013.0 9.8 NNE 19.0 1.5 1.4
23:28 8.4 8.3 99 1013.1 9.2 SE 19.0 1.5 1.4
23:29 8.4 8.3 99 1012.9 13.6 S 19.0 2.3 1.4
23:30 8.4 8.3 99 1013.0 13.6 SW 19.0 1.5 1.5
23:31 8.4 8.3 99 1013.0 13.6 SW 19.0 2.3 1.5
23:32 8.4 8.3 99 1013.1 11.4 SE 19.0 1.5 1.5
23:33 8.4 8.3 99 1013.0 8.3 S 19.0 1.5 1.5
23:34 8.4 8.3 99 1012.9 9.2 SE 19.0 0.8 1.5
23:35 8.4 8.3 99 1013.0 9.2 SE 19.0 1.5 1.6
23:36 8.4 8.3 99 1013.0 11.4 SE 19.0 0.8 1.6
23:37 8.4 8.3 99 1013.0 11.4 ESE 13.6 0.8 1.6
23:38 8.4 8.3 99 1012.8 10.7 E 13.6 0.8 1.6
23:39 8.4 8.3 99 1012.9 14.5 SE 14.5 1.5 1.6
23:40 8.4 8.3 99 1013.0 12.1 SE 14.5 0.8 1.6
23:41 8.4 8.3 99 1012.9 13.0 SE 14.5 0.8 1.6
23:42 8.5 8.4 99 1012.9 13.0 E 14.5 1.5 1.7
23:43 8.5 8.4 99 1012.9 14.5 SE 14.5 1.5 1.7
23:44 8.5 8.4 99 1012.8 13.6 SE 14.5 0.8 1.8
23:45 8.5 8.4 99 1012.8 13.6 NE 14.5 1.5 1.8
23:46 8.5 8.4 99 1012.7 18.3 NE 18.3 1.5 1.8
23:47 8.4 8.3 99 1012.7 18.3 S 18.3 0.8 1.8
23:48 8.5 8.4 99 1012.8 15.2 SE 18.3 1.5 1.9
23:49 8.5 8.4 99 1012.6 15.2 SE 18.3 2.3 2.0
23:50 8.5 8.4 99 1012.8 12.1 E 18.3 2.3 2.0
23:52 8.5 8.4 99 1012.7 10.7 SE 18.3 3.0 2.1
23:53 8.5 8.4 99 1012.6 13.0 S 18.3 3.8 2.1
23:54 8.5 8.4 99 1012.7 10.7 SE 18.3 3.0 2.2
23:55 8.5 8.4 99 1012.7 9.2 SE 18.3 3.0 2.2
23:56 8.5 8.4 99 1012.7 9.2 SE 18.3 2.3 2.3
23:57 8.5 8.4 99 1012.7 11.4 SE 18.3 3.0 2.3
23:58 8.5 8.4 99 1012.7 10.7 SE 15.2 1.5 2.3
23:59 8.5 8.4 99 1012.5 10.7 E 15.2 2.3 2.3

UK - WEATHER STATION TOPSITES - UK World Weather Websites

This is a private weather station, never base important decisions or events on data from this weather station. Although every effort has been made to make the data as accurate as possible it does not meet MetOffice standards. It is proved as a guide of local weather conditions. We accept no liability for any loss which may arise from use of the data.

Copyright © Carnkie Weather 2009 - 2019.